Time,TemperatureF,DewpointF,PressureIn,WindDirection,WindDirectionDegrees,WindSpeedMPH,WindSpeedGustMPH,Humidity,HourlyPrecipIn,Conditions,Clouds,dailyrainin,SoftwareType,DateUTC
2013-02-10 00:01:00,25.7,20.4,29.78,NW,315,17.9,20.8,80,0.00,,,0.00,WUHU216HW,2013-02-10 07:01:00,
2013-02-10 00:02:00,25.7,20.7,29.78,NW,315,16.1,20.8,81,0.00,,,0.00,WUHU216HW,2013-02-10 07:02:00,
2013-02-10 00:04:00,25.7,20.7,29.78,NW,315,14.3,20.8,81,0.00,,,0.00,WUHU216HW,2013-02-10 07:04:00,
2013-02-10 00:06:00,25.9,20.9,29.79,NNW,338,15.4,20.8,81,0.00,,,0.00,WUHU216HW,2013-02-10 07:06:00,
2013-02-10 00:07:00,25.9,20.9,29.79,NNW,338,15.4,20.8,81,0.00,,,0.00,WUHU216HW,2013-02-10 07:07:00,
2013-02-10 00:09:00,25.9,20.6,29.79,NNW,338,18.3,22.6,80,0.00,,,0.00,WUHU216HW,2013-02-10 07:09:00,
2013-02-10 00:11:00,25.9,20.6,29.79,NNW,338,16.8,22.6,80,0.00,,,0.00,WUHU216HW,2013-02-10 07:11:00,
2013-02-10 00:12:00,25.9,20.6,29.79,NW,315,15.7,22.6,80,0.00,,,0.00,WUHU216HW,2013-02-10 07:12:00,
2013-02-10 00:14:00,25.9,20.6,29.79,NNW,338,13.2,22.6,80,0.00,,,0.00,WUHU216HW,2013-02-10 07:14:00,
2013-02-10 00:17:00,25.9,20.6,29.79,NW,315,14.5,22.6,80,0.00,,,0.00,WUHU216HW,2013-02-10 07:17:00,
2013-02-10 00:19:00,25.9,20.6,29.79,NNW,338,16.1,21.5,80,0.00,,,0.00,WUHU216HW,2013-02-10 07:19:00,
2013-02-10 00:22:00,25.9,20.6,29.79,NW,315,15.2,17.2,80,0.00,,,0.00,WUHU216HW,2013-02-10 07:22:00,
2013-02-10 00:24:00,26.1,20.4,29.79,NNW,338,15.4,17.4,79,0.00,,,0.00,WUHU216HW,2013-02-10 07:24:00,
2013-02-10 00:27:00,26.1,20.4,29.79,NW,315,15.0,18.6,79,0.00,,,0.00,WUHU216HW,2013-02-10 07:27:00,
2013-02-10 00:28:00,26.1,20.4,29.79,NNW,338,15.0,18.6,79,0.00,,,0.00,WUHU216HW,2013-02-10 07:28:00,
2013-02-10 00:29:00,26.3,20.6,29.79,NNW,338,14.8,18.6,79,0.00,,,0.00,WUHU216HW,2013-02-10 07:29:00,
2013-02-10 00:32:00,26.3,20.6,29.79,NW,315,15.4,18.6,79,0.00,,,0.00,WUHU216HW,2013-02-10 07:32:00,
2013-02-10 00:33:00,26.3,20.6,29.79,NNW,338,16.3,18.6,79,0.00,,,0.00,WUHU216HW,2013-02-10 07:33:00,
2013-02-10 00:34:00,26.3,20.6,29.79,NNW,338,17.4,18.6,79,0.00,,,0.00,WUHU216HW,2013-02-10 07:34:00,
2013-02-10 00:37:00,26.3,20.6,29.79,NW,315,15.2,19.9,79,0.00,,,0.00,WUHU216HW,2013-02-10 07:37:00,
2013-02-10 00:38:00,26.5,20.8,29.79,NNW,338,13.4,19.9,79,0.00,,,0.00,WUHU216HW,2013-02-10 07:38:00,
2013-02-10 00:39:00,26.3,20.6,29.80,NNW,338,17.2,19.9,79,0.00,,,0.00,WUHU216HW,2013-02-10 07:39:00,
2013-02-10 00:42:00,26.5,20.8,29.80,NNW,338,16.1,19.9,79,0.00,,,0.00,WUHU216HW,2013-02-10 07:42:00,
2013-02-10 00:43:00,26.5,20.8,29.80,NNW,338,10.7,19.9,79,0.00,,,0.00,WUHU216HW,2013-02-10 07:43:00,
2013-02-10 00:44:00,26.5,20.8,29.80,NW,315,16.6,19.9,79,0.00,,,0.00,WUHU216HW,2013-02-10 07:44:00,
2013-02-10 00:48:00,26.3,20.6,29.80,NNW,338,15.0,19.5,79,0.00,,,0.00,WUHU216HW,2013-02-10 07:48:00,
2013-02-10 00:50:00,26.3,20.9,29.80,NW,315,15.0,19.5,80,0.00,,,0.00,WUHU216HW,2013-02-10 07:50:00,
2013-02-10 00:53:00,26.3,21.3,29.80,NNW,338,15.9,19.5,81,0.00,,,0.00,WUHU216HW,2013-02-10 07:53:00,
2013-02-10 00:54:00,26.3,21.3,29.80,NW,315,17.0,19.5,81,0.00,,,0.00,WUHU216HW,2013-02-10 07:54:00,
2013-02-10 00:55:00,26.1,20.8,29.80,NW,315,17.2,19.2,80,0.00,,,0.00,WUHU216HW,2013-02-10 07:55:00,
2013-02-10 00:58:00,26.1,21.1,29.80,NW,315,17.7,19.2,81,0.00,,,0.00,WUHU216HW,2013-02-10 07:58:00,
2013-02-10 00:59:00,26.1,21.1,29.80,NNW,338,15.0,19.2,81,0.00,,,0.00,WUHU216HW,2013-02-10 07:59:00,
2013-02-10 01:00:00,26.1,21.1,29.80,NW,315,16.3,19.2,81,0.00,,,0.00,WUHU216HW,2013-02-10 08:00:00,
2013-02-10 01:03:00,25.9,21.2,29.80,NNW,338,11.9,19.2,82,0.00,,,0.00,WUHU216HW,2013-02-10 08:03:00,
2013-02-10 01:04:00,25.9,21.4,29.80,North,0,10.7,18.3,83,0.00,,,0.00,WUHU216HW,2013-02-10 08:04:00,
2013-02-10 01:05:00,25.9,21.7,29.80,North,0,10.1,18.3,84,0.00,,,0.00,WUHU216HW,2013-02-10 08:05:00,
2013-02-10 01:08:00,25.6,21.7,29.81,NW,315,12.1,17.9,85,0.00,,,0.00,WUHU216HW,2013-02-10 08:08:00,
2013-02-10 01:09:00,25.6,21.7,29.81,NNW,338,8.5,17.9,85,0.00,,,0.00,WUHU216HW,2013-02-10 08:09:00,
2013-02-10 01:10:00,25.6,21.7,29.80,NW,315,9.4,16.3,85,0.00,,,0.00,WUHU216HW,2013-02-10 08:10:00,
2013-02-10 01:14:00,25.6,21.7,29.80,NNW,338,11.6,15.9,85,0.00,,,0.00,WUHU216HW,2013-02-10 08:14:00,
2013-02-10 01:17:00,25.4,21.5,29.80,NW,315,14.5,15.4,85,0.00,,,0.00,WUHU216HW,2013-02-10 08:17:00,
2013-02-10 01:19:00,25.4,21.5,29.80,NNW,338,10.3,14.5,85,0.00,,,0.00,WUHU216HW,2013-02-10 08:19:00,
2013-02-10 01:22:00,25.4,21.5,29.80,WNW,293,12.5,15.0,85,0.00,,,0.00,WUHU216HW,2013-02-10 08:22:00,
2013-02-10 01:24:00,25.4,21.8,29.80,NW,315,16.1,17.2,86,0.00,,,0.00,WUHU216HW,2013-02-10 08:24:00,
2013-02-10 01:25:00,25.4,21.8,29.80,WNW,293,15.9,17.2,86,0.00,,,0.00,WUHU216HW,2013-02-10 08:25:00,
2013-02-10 01:27:00,25.2,21.9,29.80,NW,315,18.8,19.2,87,0.00,,,0.00,WUHU216HW,2013-02-10 08:27:00,
2013-02-10 01:29:00,25.2,21.9,29.80,NW,315,18.1,19.2,87,0.00,,,0.00,WUHU216HW,2013-02-10 08:29:00,
2013-02-10 01:30:00,25.2,22.2,29.80,NNW,338,14.3,19.2,88,0.00,,,0.00,WUHU216HW,2013-02-10 08:30:00,
2013-02-10 01:33:00,25.0,22.0,29.80,NW,315,15.9,19.2,88,0.00,,,0.00,WUHU216HW,2013-02-10 08:33:00,
2013-02-10 01:34:00,25.0,22.0,29.80,NNW,338,9.2,19.2,88,0.00,,,0.00,WUHU216HW,2013-02-10 08:34:00,
2013-02-10 01:35:00,25.0,22.0,29.80,NNW,338,15.7,18.8,88,0.00,,,0.00,WUHU216HW,2013-02-10 08:35:00,
2013-02-10 01:38:00,25.0,22.0,29.80,NNW,338,13.6,18.6,88,0.00,,,0.00,WUHU216HW,2013-02-10 08:38:00,
2013-02-10 01:39:00,24.8,21.8,29.79,NW,315,10.7,17.2,88,0.00,,,0.00,WUHU216HW,2013-02-10 08:39:00,
2013-02-10 01:40:00,24.8,21.8,29.79,NW,315,13.0,17.2,88,0.00,,,0.00,WUHU216HW,2013-02-10 08:40:00,
2013-02-10 01:43:00,24.8,21.8,29.79,WNW,293,15.4,17.2,88,0.00,,,0.00,WUHU216HW,2013-02-10 08:43:00,
2013-02-10 01:44:00,24.7,21.6,29.80,NW,315,13.9,17.2,88,0.00,,,0.00,WUHU216HW,2013-02-10 08:44:00,
2013-02-10 01:45:00,24.7,21.6,29.80,NW,315,15.2,17.2,88,0.00,,,0.00,WUHU216HW,2013-02-10 08:45:00,
2013-02-10 01:48:00,24.5,21.2,29.79,NNW,338,15.7,17.2,87,0.00,,,0.00,WUHU216HW,2013-02-10 08:48:00,
2013-02-10 01:49:00,24.7,21.6,29.79,NNW,338,15.7,17.2,88,0.00,,,0.00,WUHU216HW,2013-02-10 08:49:00,
2013-02-10 01:50:00,24.7,21.6,29.79,NW,315,16.3,17.2,88,0.00,,,0.00,WUHU216HW,2013-02-10 08:50:00,
2013-02-10 01:51:00,24.7,21.6,29.79,NW,315,12.1,17.2,88,0.00,,,0.00,WUHU216HW,2013-02-10 08:51:00,
2013-02-10 01:53:00,24.5,21.4,29.80,NW,315,14.8,17.2,88,0.00,,,0.00,WUHU216HW,2013-02-10 08:53:00,
2013-02-10 01:55:00,24.7,21.3,29.80,NW,315,15.0,17.2,87,0.00,,,0.00,WUHU216HW,2013-02-10 08:55:00,
2013-02-10 01:56:00,24.7,21.3,29.80,NW,315,13.2,17.0,87,0.00,,,0.00,WUHU216HW,2013-02-10 08:56:00,
2013-02-10 01:58:00,24.8,21.2,29.80,NW,315,16.3,17.7,86,0.00,,,0.00,WUHU216HW,2013-02-10 08:58:00,
2013-02-10 02:00:00,25.0,21.2,29.80,NW,315,18.6,18.6,85,0.00,,,0.00,WUHU216HW,2013-02-10 09:00:00,
2013-02-10 02:01:00,25.2,21.3,29.80,NW,315,17.2,18.6,85,0.00,,,0.00,WUHU216HW,2013-02-10 09:01:00,
2013-02-10 02:03:00,25.2,21.3,29.80,NW,315,15.7,18.6,85,0.00,,,0.00,WUHU216HW,2013-02-10 09:03:00,
2013-02-10 02:05:00,25.2,21.3,29.80,NNW,338,20.6,20.8,85,0.00,,,0.00,WUHU216HW,2013-02-10 09:05:00,
2013-02-10 02:07:00,25.2,21.3,29.80,NW,315,16.3,21.0,85,0.00,,,0.00,WUHU216HW,2013-02-10 09:07:00,
2013-02-10 02:08:00,25.2,21.6,29.80,NNW,338,15.4,21.0,86,0.00,,,0.00,WUHU216HW,2013-02-10 09:08:00,
2013-02-10 02:10:00,25.2,21.9,29.80,NW,315,15.4,21.0,87,0.00,,,0.00,WUHU216HW,2013-02-10 09:10:00,
2013-02-10 02:12:00,24.8,21.5,29.80,NNW,338,16.1,21.0,87,0.00,,,0.00,WUHU216HW,2013-02-10 09:12:00,
2013-02-10 02:13:00,24.8,21.5,29.80,NNW,338,15.2,21.0,87,0.00,,,0.00,WUHU216HW,2013-02-10 09:13:00,
2013-02-10 02:15:00,24.8,21.5,29.80,NNW,338,15.2,21.0,87,0.00,,,0.00,WUHU216HW,2013-02-10 09:15:00,
2013-02-10 02:18:00,24.8,21.2,29.80,NW,315,15.4,19.2,86,0.00,,,0.00,WUHU216HW,2013-02-10 09:18:00,
2013-02-10 02:20:00,24.7,20.8,29.80,NW,315,17.2,22.1,85,0.00,,,0.00,WUHU216HW,2013-02-10 09:20:00,
2013-02-10 02:21:00,24.7,20.8,29.80,NW,315,17.0,22.1,85,0.00,,,0.00,WUHU216HW,2013-02-10 09:21:00,
2013-02-10 02:23:00,24.7,20.8,29.80,NW,315,17.4,22.1,85,0.00,,,0.00,WUHU216HW,2013-02-10 09:23:00,
2013-02-10 02:25:00,24.7,20.8,29.80,NW,315,12.1,22.1,85,0.00,,,0.00,WUHU216HW,2013-02-10 09:25:00,
2013-02-10 02:26:00,24.7,20.8,29.80,NW,315,12.1,22.1,85,0.00,,,0.00,WUHU216HW,2013-02-10 09:26:00,
2013-02-10 02:28:00,24.7,20.5,29.80,NNW,338,12.1,22.1,84,0.00,,,0.00,WUHU216HW,2013-02-10 09:28:00,
2013-02-10 02:29:00,24.7,20.5,29.80,NW,315,14.5,22.1,84,0.00,,,0.00,WUHU216HW,2013-02-10 09:29:00,
2013-02-10 02:31:00,24.7,20.3,29.80,NNW,338,15.9,20.8,83,0.00,,,0.00,WUHU216HW,2013-02-10 09:31:00,
2013-02-10 02:33:00,24.8,20.4,29.81,NW,315,17.0,20.8,83,0.00,,,0.00,WUHU216HW,2013-02-10 09:33:00,
2013-02-10 02:36:00,24.8,20.2,29.81,NNW,338,15.7,19.2,82,0.00,,,0.00,WUHU216HW,2013-02-10 09:36:00,
2013-02-10 02:38:00,24.8,20.2,29.81,NW,315,12.8,19.2,82,0.00,,,0.00,WUHU216HW,2013-02-10 09:38:00,
2013-02-10 02:41:00,24.7,19.7,29.81,NW,315,13.0,17.9,81,0.00,,,0.00,WUHU216HW,2013-02-10 09:41:00,
2013-02-10 02:43:00,24.8,19.9,29.81,NNW,338,13.2,18.6,81,0.00,,,0.00,WUHU216HW,2013-02-10 09:43:00,
2013-02-10 02:44:00,24.8,19.9,29.81,NNW,338,14.1,18.6,81,0.00,,,0.00,WUHU216HW,2013-02-10 09:44:00,
2013-02-10 02:46:00,24.8,19.6,29.81,NW,315,15.2,18.6,80,0.00,,,0.00,WUHU216HW,2013-02-10 09:46:00,
2013-02-10 02:48:00,24.8,19.6,29.81,NNW,338,16.6,20.4,80,0.00,,,0.00,WUHU216HW,2013-02-10 09:48:00,
2013-02-10 02:49:00,24.8,19.6,29.81,NW,315,19.2,20.6,80,0.00,,,0.00,WUHU216HW,2013-02-10 09:49:00,
2013-02-10 02:51:00,25.0,19.8,29.81,NW,315,20.6,20.8,80,0.00,,,0.00,WUHU216HW,2013-02-10 09:51:00,
2013-02-10 02:53:00,25.0,19.8,29.82,NW,315,14.5,20.8,80,0.00,,,0.00,WUHU216HW,2013-02-10 09:53:00,
2013-02-10 02:54:00,25.0,19.8,29.82,NW,315,16.3,20.8,80,0.00,,,0.00,WUHU216HW,2013-02-10 09:54:00,
2013-02-10 02:56:00,25.0,19.8,29.82,NNW,338,15.0,20.8,80,0.00,,,0.00,WUHU216HW,2013-02-10 09:56:00,
2013-02-10 02:57:00,25.0,19.8,29.82,NW,315,16.3,20.8,80,0.00,,,0.00,WUHU216HW,2013-02-10 09:57:00,
2013-02-10 02:59:00,25.0,19.8,29.82,NNW,338,15.4,20.8,80,0.00,,,0.00,WUHU216HW,2013-02-10 09:59:00,
2013-02-10 03:02:00,24.8,19.9,29.82,North,0,17.4,19.0,81,0.00,,,0.00,WUHU216HW,2013-02-10 10:02:00,
2013-02-10 03:04:00,24.8,20.2,29.82,NW,315,13.6,18.1,82,0.00,,,0.00,WUHU216HW,2013-02-10 10:04:00,
2013-02-10 03:05:00,24.8,19.9,29.82,NW,315,15.9,18.1,81,0.00,,,0.00,WUHU216HW,2013-02-10 10:05:00,
2013-02-10 03:07:00,24.8,19.9,29.82,NW,315,15.2,18.1,81,0.00,,,0.00,WUHU216HW,2013-02-10 10:07:00,
2013-02-10 03:09:00,24.7,19.7,29.82,NW,315,15.7,18.1,81,0.00,,,0.00,WUHU216HW,2013-02-10 10:09:00,
2013-02-10 03:10:00,24.7,20.0,29.82,NW,315,13.4,18.1,82,0.00,,,0.00,WUHU216HW,2013-02-10 10:10:00,
2013-02-10 03:12:00,24.7,20.0,29.82,NNW,338,11.4,18.1,82,0.00,,,0.00,WUHU216HW,2013-02-10 10:12:00,
2013-02-10 03:14:00,24.7,20.0,29.82,NNW,338,17.0,19.2,82,0.00,,,0.00,WUHU216HW,2013-02-10 10:14:00,
2013-02-10 03:15:00,24.7,20.0,29.82,NW,315,15.4,19.2,82,0.00,,,0.00,WUHU216HW,2013-02-10 10:15:00,
2013-02-10 03:17:00,24.7,20.0,29.82,NW,315,13.4,19.2,82,0.00,,,0.00,WUHU216HW,2013-02-10 10:17:00,
2013-02-10 03:20:00,24.5,19.8,29.82,NNW,338,14.3,19.2,82,0.00,,,0.00,WUHU216HW,2013-02-10 10:20:00,
2013-02-10 03:22:00,24.5,19.5,29.82,North,0,14.8,19.2,81,0.00,,,0.00,WUHU216HW,2013-02-10 10:22:00,
2013-02-10 03:25:00,24.5,19.5,29.82,NNW,338,16.1,17.2,81,0.00,,,0.00,WUHU216HW,2013-02-10 10:25:00,
2013-02-10 03:27:00,24.5,19.5,29.82,NNW,338,13.9,17.2,81,0.00,,,0.00,WUHU216HW,2013-02-10 10:27:00,
2013-02-10 03:30:00,24.5,19.8,29.82,NNW,338,11.2,17.2,82,0.00,,,0.00,WUHU216HW,2013-02-10 10:30:00,
2013-02-10 03:32:00,24.1,19.2,29.82,NNW,338,11.4,16.1,81,0.00,,,0.00,WUHU216HW,2013-02-10 10:32:00,
2013-02-10 03:33:00,24.1,19.2,29.82,North,0,12.1,16.1,81,0.00,,,0.00,WUHU216HW,2013-02-10 10:33:00,
2013-02-10 03:35:00,24.1,19.2,29.82,NNW,338,9.8,15.7,81,0.00,,,0.00,WUHU216HW,2013-02-10 10:35:00,
2013-02-10 03:37:00,24.1,19.2,29.82,NNW,338,9.4,14.3,81,0.00,,,0.00,WUHU216HW,2013-02-10 10:37:00,
2013-02-10 03:38:00,23.9,19.0,29.82,NNW,338,10.1,14.3,81,0.00,,,0.00,WUHU216HW,2013-02-10 10:38:00,
2013-02-10 03:40:00,23.9,19.0,29.82,NNW,338,5.1,13.6,81,0.00,,,0.00,WUHU216HW,2013-02-10 10:40:00,
2013-02-10 03:41:00,23.9,19.0,29.82,North,0,6.0,13.6,81,0.00,,,0.00,WUHU216HW,2013-02-10 10:41:00,
2013-02-10 03:42:00,23.9,18.7,29.82,NNW,338,7.8,12.1,80,0.00,,,0.00,WUHU216HW,2013-02-10 10:42:00,
2013-02-10 03:43:00,24.1,18.9,29.82,NNW,338,9.4,11.4,80,0.00,,,0.00,WUHU216HW,2013-02-10 10:43:00,
2013-02-10 03:45:00,24.1,18.9,29.82,NNW,338,12.1,13.0,80,0.00,,,0.00,WUHU216HW,2013-02-10 10:45:00,
2013-02-10 03:46:00,24.3,19.1,29.82,NNW,338,12.8,13.0,80,0.00,,,0.00,WUHU216HW,2013-02-10 10:46:00,
2013-02-10 03:47:00,24.3,18.7,29.82,NNW,338,13.2,17.0,79,0.00,,,0.00,WUHU216HW,2013-02-10 10:47:00,
2013-02-10 03:48:00,24.5,18.9,29.82,NW,315,13.4,17.0,79,0.00,,,0.00,WUHU216HW,2013-02-10 10:48:00,
2013-02-10 03:50:00,24.5,18.9,29.82,NW,315,10.5,17.0,79,0.00,,,0.00,WUHU216HW,2013-02-10 10:50:00,
2013-02-10 03:51:00,24.7,19.1,29.82,NNW,338,9.8,17.0,79,0.00,,,0.00,WUHU216HW,2013-02-10 10:51:00,
2013-02-10 03:52:00,24.7,18.8,29.82,NNW,338,16.1,17.0,78,0.00,,,0.00,WUHU216HW,2013-02-10 10:52:00,
2013-02-10 03:53:00,24.7,18.8,29.82,NNW,338,13.9,17.0,78,0.00,,,0.00,WUHU216HW,2013-02-10 10:53:00,
2013-02-10 03:56:00,24.7,18.8,29.82,NW,315,12.5,17.0,78,0.00,,,0.00,WUHU216HW,2013-02-10 10:56:00,
2013-02-10 03:58:00,24.7,18.5,29.82,NNW,338,15.0,16.1,77,0.00,,,0.00,WUHU216HW,2013-02-10 10:58:00,
2013-02-10 04:01:00,24.8,18.0,29.82,NNW,338,14.8,19.7,75,0.00,,,0.00,WUHU216HW,2013-02-10 11:01:00,
2013-02-10 04:03:00,24.8,18.0,29.82,NNW,338,14.3,19.7,75,0.00,,,0.00,WUHU216HW,2013-02-10 11:03:00,
2013-02-10 04:04:00,24.8,18.0,29.82,NW,315,15.0,19.7,75,0.00,,,0.00,WUHU216HW,2013-02-10 11:04:00,
2013-02-10 04:06:00,24.8,18.0,29.82,NNW,338,18.6,19.7,75,0.00,,,0.00,WUHU216HW,2013-02-10 11:06:00,
2013-02-10 04:08:00,25.0,17.8,29.82,NW,315,13.4,21.5,74,0.00,,,0.00,WUHU216HW,2013-02-10 11:08:00,
2013-02-10 04:09:00,25.0,17.6,29.82,NW,315,14.3,21.5,73,0.00,,,0.00,WUHU216HW,2013-02-10 11:09:00,
2013-02-10 04:11:00,25.0,17.6,29.82,NNW,338,11.2,21.5,73,0.00,,,0.00,WUHU216HW,2013-02-10 11:11:00,
2013-02-10 04:12:00,25.0,17.6,29.82,NNW,338,16.6,21.5,73,0.00,,,0.00,WUHU216HW,2013-02-10 11:12:00,
2013-02-10 04:13:00,25.2,17.4,29.82,NNW,338,13.9,21.5,72,0.00,,,0.00,WUHU216HW,2013-02-10 11:13:00,
2013-02-10 04:14:00,25.2,17.4,29.82,NNW,338,11.0,21.5,72,0.00,,,0.00,WUHU216HW,2013-02-10 11:14:00,
2013-02-10 04:16:00,25.2,17.4,29.82,North,0,10.7,21.5,72,0.00,,,0.00,WUHU216HW,2013-02-10 11:16:00,
2013-02-10 04:17:00,25.2,17.4,29.82,NNW,338,11.6,21.5,72,0.00,,,0.00,WUHU216HW,2013-02-10 11:17:00,
2013-02-10 04:18:00,25.2,17.4,29.82,North,0,14.3,17.2,72,0.00,,,0.00,WUHU216HW,2013-02-10 11:18:00,
2013-02-10 04:19:00,25.0,17.2,29.82,North,0,15.0,17.2,72,0.00,,,0.00,WUHU216HW,2013-02-10 11:19:00,
2013-02-10 04:21:00,25.2,17.1,29.82,North,0,13.9,19.2,71,0.00,,,0.00,WUHU216HW,2013-02-10 11:21:00,
2013-02-10 04:22:00,25.4,17.6,29.82,NW,315,12.8,19.2,72,0.00,,,0.00,WUHU216HW,2013-02-10 11:22:00,
2013-02-10 04:24:00,25.4,17.6,29.82,NW,315,13.9,19.2,72,0.00,,,0.00,WUHU216HW,2013-02-10 11:24:00,
2013-02-10 04:26:00,25.4,17.3,29.82,NNW,338,19.0,21.0,71,0.00,,,0.00,WUHU216HW,2013-02-10 11:26:00,
2013-02-10 04:28:00,25.4,17.3,29.82,NNW,338,17.2,21.0,71,0.00,,,0.00,WUHU216HW,2013-02-10 11:28:00,
2013-02-10 04:29:00,25.4,17.3,29.82,NNW,338,15.0,21.0,71,0.00,,,0.00,WUHU216HW,2013-02-10 11:29:00,
2013-02-10 04:31:00,25.4,17.3,29.82,NW,315,11.9,21.0,71,0.00,,,0.00,WUHU216HW,2013-02-10 11:31:00,
2013-02-10 04:32:00,25.6,17.5,29.82,NNW,338,13.9,21.0,71,0.00,,,0.00,WUHU216HW,2013-02-10 11:32:00,
2013-02-10 04:34:00,25.6,17.5,29.82,NNW,338,13.9,21.0,71,0.00,,,0.00,WUHU216HW,2013-02-10 11:34:00,
2013-02-10 04:36:00,25.6,17.5,29.82,NNW,338,15.4,19.0,71,0.00,,,0.00,WUHU216HW,2013-02-10 11:36:00,
2013-02-10 04:38:00,25.4,17.3,29.82,NNW,338,16.8,19.0,71,0.00,,,0.00,WUHU216HW,2013-02-10 11:38:00,
2013-02-10 04:39:00,25.4,17.6,29.83,NNW,338,16.8,19.0,72,0.00,,,0.00,WUHU216HW,2013-02-10 11:39:00,
2013-02-10 04:42:00,25.4,17.6,29.83,NNW,338,15.7,20.4,72,0.00,,,0.00,WUHU216HW,2013-02-10 11:42:00,
2013-02-10 04:43:00,25.2,17.4,29.83,NNW,338,14.8,20.4,72,0.00,,,0.00,WUHU216HW,2013-02-10 11:43:00,
2013-02-10 04:44:00,25.2,17.4,29.83,NNW,338,15.0,20.4,72,0.00,,,0.00,WUHU216HW,2013-02-10 11:44:00,
2013-02-10 04:47:00,25.2,17.7,29.83,NW,315,13.9,20.4,73,0.00,,,0.00,WUHU216HW,2013-02-10 11:47:00,
2013-02-10 04:48:00,25.2,18.4,29.83,NW,315,18.1,20.4,75,0.00,,,0.00,WUHU216HW,2013-02-10 11:48:00,
2013-02-10 04:49:00,25.0,18.5,29.83,NW,315,19.0,20.4,76,0.00,,,0.00,WUHU216HW,2013-02-10 11:49:00,
2013-02-10 04:50:00,25.0,18.5,29.83,NW,315,19.0,20.4,76,0.00,,,0.00,WUHU216HW,2013-02-10 11:50:00,
2013-02-10 04:52:00,24.8,19.0,29.83,NNW,338,21.5,21.5,78,0.00,,,0.00,WUHU216HW,2013-02-10 11:52:00,
2013-02-10 04:53:00,24.8,19.0,29.83,NW,315,18.6,21.5,78,0.00,,,0.00,WUHU216HW,2013-02-10 11:53:00,
2013-02-10 04:54:00,24.7,18.8,29.83,NNW,338,18.1,21.5,78,0.00,,,0.00,WUHU216HW,2013-02-10 11:54:00,
2013-02-10 04:55:00,24.7,18.8,29.83,NW,315,17.9,21.5,78,0.00,,,0.00,WUHU216HW,2013-02-10 11:55:00,
2013-02-10 04:57:00,24.8,18.4,29.83,NNW,338,16.3,21.5,76,0.00,,,0.00,WUHU216HW,2013-02-10 11:57:00,
2013-02-10 04:58:00,24.8,18.0,29.83,NNW,338,18.6,21.5,75,0.00,,,0.00,WUHU216HW,2013-02-10 11:58:00,
2013-02-10 05:00:00,24.8,18.4,29.83,NNW,338,19.0,21.5,76,0.00,,,0.00,WUHU216HW,2013-02-10 12:00:00,
2013-02-10 05:02:00,24.8,18.0,29.83,NW,315,20.8,23.0,75,0.00,,,0.00,WUHU216HW,2013-02-10 12:02:00,
2013-02-10 05:04:00,24.8,18.0,29.83,NW,315,15.2,23.0,75,0.00,,,0.00,WUHU216HW,2013-02-10 12:04:00,
2013-02-10 05:05:00,24.8,18.0,29.83,NW,315,14.1,23.0,75,0.00,,,0.00,WUHU216HW,2013-02-10 12:05:00,
2013-02-10 05:06:00,24.8,18.0,29.83,NW,315,16.3,23.0,75,0.00,,,0.00,WUHU216HW,2013-02-10 12:06:00,
2013-02-10 05:07:00,24.8,17.6,29.83,NNW,338,12.3,23.0,74,0.00,,,0.00,WUHU216HW,2013-02-10 12:07:00,
2013-02-10 05:09:00,24.8,17.6,29.83,NW,315,13.4,23.0,74,0.00,,,0.00,WUHU216HW,2013-02-10 12:09:00,
2013-02-10 05:10:00,24.7,17.6,29.83,NNW,338,15.9,23.0,74,0.00,,,0.00,WUHU216HW,2013-02-10 12:10:00,
2013-02-10 05:11:00,24.7,17.6,29.83,NW,315,13.6,23.0,74,0.00,,,0.00,WUHU216HW,2013-02-10 12:11:00,
2013-02-10 05:12:00,24.7,17.2,29.83,NW,315,16.8,20.8,73,0.00,,,0.00,WUHU216HW,2013-02-10 12:12:00,
2013-02-10 05:14:00,24.7,17.2,29.83,NW,315,14.5,20.1,73,0.00,,,0.00,WUHU216HW,2013-02-10 12:14:00,
2013-02-10 05:15:00,24.7,17.2,29.83,NW,315,20.1,20.1,73,0.00,,,0.00,WUHU216HW,2013-02-10 12:15:00,
2013-02-10 05:16:00,24.7,17.2,29.83,North,0,17.2,20.6,73,0.00,,,0.00,WUHU216HW,2013-02-10 12:16:00,
2013-02-10 05:17:00,24.7,17.2,29.83,NW,315,14.5,20.6,73,0.00,,,0.00,WUHU216HW,2013-02-10 12:17:00,
2013-02-10 05:19:00,24.7,17.2,29.83,NW,315,20.6,20.6,73,0.00,,,0.00,WUHU216HW,2013-02-10 12:19:00,
2013-02-10 05:20:00,24.8,17.4,29.84,NNW,338,14.8,20.6,73,0.00,,,0.00,WUHU216HW,2013-02-10 12:20:00,
2013-02-10 05:21:00,24.8,17.0,29.84,NNW,338,19.7,20.8,72,0.00,,,0.00,WUHU216HW,2013-02-10 12:21:00,
2013-02-10 05:22:00,24.8,17.0,29.84,NNW,338,22.4,23.5,72,0.00,,,0.00,WUHU216HW,2013-02-10 12:22:00,
2013-02-10 05:24:00,24.8,17.0,29.84,NNW,338,19.7,25.7,72,0.00,,,0.00,WUHU216HW,2013-02-10 12:24:00,
2013-02-10 05:25:00,24.8,17.0,29.84,NW,315,16.8,25.7,72,0.00,,,0.00,WUHU216HW,2013-02-10 12:25:00,
2013-02-10 05:26:00,24.8,17.0,29.84,NW,315,18.1,25.7,72,0.00,,,0.00,WUHU216HW,2013-02-10 12:26:00,
2013-02-10 05:27:00,24.8,17.0,29.84,NW,315,20.1,25.7,72,0.00,,,0.00,WUHU216HW,2013-02-10 12:27:00,
2013-02-10 05:29:00,24.8,17.0,29.84,NNW,338,19.2,25.7,72,0.00,,,0.00,WUHU216HW,2013-02-10 12:29:00,
2013-02-10 05:30:00,24.8,17.0,29.84,NW,315,20.1,25.7,72,0.00,,,0.00,WUHU216HW,2013-02-10 12:30:00,
2013-02-10 05:31:00,24.8,17.0,29.84,NNW,338,16.6,25.7,72,0.00,,,0.00,WUHU216HW,2013-02-10 12:31:00,
2013-02-10 05:32:00,24.8,17.0,29.84,NW,315,23.3,25.7,72,0.00,,,0.00,WUHU216HW,2013-02-10 12:32:00,
2013-02-10 05:34:00,24.8,17.0,29.84,NW,315,21.7,24.2,72,0.00,,,0.00,WUHU216HW,2013-02-10 12:34:00,
2013-02-10 05:35:00,24.8,16.8,29.84,NW,315,21.5,24.2,71,0.00,,,0.00,WUHU216HW,2013-02-10 12:35:00,
2013-02-10 05:36:00,24.8,16.8,29.84,NNW,338,21.0,24.2,71,0.00,,,0.00,WUHU216HW,2013-02-10 12:36:00,
2013-02-10 05:37:00,25.0,16.9,29.84,NW,315,20.1,24.2,71,0.00,,,0.00,WUHU216HW,2013-02-10 12:37:00,
2013-02-10 05:39:00,24.8,16.4,29.84,North,0,22.4,24.2,70,0.00,,,0.00,WUHU216HW,2013-02-10 12:39:00,
2013-02-10 05:40:00,25.0,16.6,29.84,NNW,338,18.6,24.2,70,0.00,,,0.00,WUHU216HW,2013-02-10 12:40:00,
2013-02-10 05:41:00,24.8,16.4,29.84,NNW,338,20.1,24.2,70,0.00,,,0.00,WUHU216HW,2013-02-10 12:41:00,
2013-02-10 05:43:00,24.8,16.4,29.84,NW,315,24.2,24.2,70,0.00,,,0.00,WUHU216HW,2013-02-10 12:43:00,
2013-02-10 05:44:00,25.0,16.6,29.84,NW,315,19.7,24.2,70,0.00,,,0.00,WUHU216HW,2013-02-10 12:44:00,
2013-02-10 05:45:00,25.0,16.6,29.84,NNW,338,23.0,24.2,70,0.00,,,0.00,WUHU216HW,2013-02-10 12:45:00,
2013-02-10 05:46:00,24.8,16.4,29.84,NNW,338,20.8,24.2,70,0.00,,,0.00,WUHU216HW,2013-02-10 12:46:00,
2013-02-10 05:48:00,24.8,16.4,29.84,NNW,338,18.3,24.2,70,0.00,,,0.00,WUHU216HW,2013-02-10 12:48:00,
2013-02-10 05:49:00,24.8,16.4,29.84,NNW,338,21.5,24.2,70,0.00,,,0.00,WUHU216HW,2013-02-10 12:49:00,
2013-02-10 05:50:00,25.0,16.6,29.84,NW,315,20.8,24.2,70,0.00,,,0.00,WUHU216HW,2013-02-10 12:50:00,
2013-02-10 05:51:00,24.8,16.4,29.84,NW,315,17.9,24.2,70,0.00,,,0.00,WUHU216HW,2013-02-10 12:51:00,
2013-02-10 05:53:00,24.8,16.4,29.84,NW,315,18.1,24.2,70,0.00,,,0.00,WUHU216HW,2013-02-10 12:53:00,
2013-02-10 05:55:00,24.8,16.4,29.84,NW,315,21.0,23.0,70,0.00,,,0.00,WUHU216HW,2013-02-10 12:55:00,
2013-02-10 05:56:00,24.8,15.7,29.84,NW,315,22.8,22.8,68,0.00,,,0.00,WUHU216HW,2013-02-10 12:56:00,
2013-02-10 05:58:00,25.0,16.2,29.84,NW,315,16.3,22.8,69,0.00,,,0.00,WUHU216HW,2013-02-10 12:58:00,
2013-02-10 06:00:00,24.8,16.0,29.84,NW,315,17.2,22.8,69,0.00,,,0.00,WUHU216HW,2013-02-10 13:00:00,
2013-02-10 06:01:00,24.8,16.0,29.84,NW,315,20.8,22.8,69,0.00,,,0.00,WUHU216HW,2013-02-10 13:01:00,
2013-02-10 06:03:00,24.8,16.0,29.84,NW,315,15.0,22.8,69,0.00,,,0.00,WUHU216HW,2013-02-10 13:03:00,
2013-02-10 06:05:00,24.8,16.0,29.84,NW,315,19.2,22.8,69,0.00,,,0.00,WUHU216HW,2013-02-10 13:05:00,
2013-02-10 06:06:00,24.8,16.0,29.84,NNW,338,14.3,22.8,69,0.00,,,0.00,WUHU216HW,2013-02-10 13:06:00,
2013-02-10 06:08:00,24.8,16.4,29.84,NNW,338,19.2,20.8,70,0.00,,,0.00,WUHU216HW,2013-02-10 13:08:00,
2013-02-10 06:10:00,24.8,16.4,29.85,NNW,338,20.4,20.8,70,0.00,,,0.00,WUHU216HW,2013-02-10 13:10:00,
2013-02-10 06:11:00,25.0,16.6,29.85,NNW,338,20.8,20.8,70,0.00,,,0.00,WUHU216HW,2013-02-10 13:11:00,
2013-02-10 06:13:00,24.8,16.4,29.85,NW,315,15.2,20.8,70,0.00,,,0.00,WUHU216HW,2013-02-10 13:13:00,
2013-02-10 06:16:00,24.8,16.4,29.85,NNW,338,14.8,21.9,70,0.00,,,0.00,WUHU216HW,2013-02-10 13:16:00,
2013-02-10 06:17:00,24.8,16.0,29.85,NW,315,16.3,21.9,69,0.00,,,0.00,WUHU216HW,2013-02-10 13:17:00,
2013-02-10 06:18:00,24.8,16.4,29.85,NNW,338,15.4,21.9,70,0.00,,,0.00,WUHU216HW,2013-02-10 13:18:00,
2013-02-10 06:21:00,24.8,16.4,29.85,NW,315,15.7,21.9,70,0.00,,,0.00,WUHU216HW,2013-02-10 13:21:00,
2013-02-10 06:22:00,24.8,16.8,29.85,NNW,338,20.1,21.9,71,0.00,,,0.00,WUHU216HW,2013-02-10 13:22:00,
2013-02-10 06:23:00,24.7,16.6,29.85,NW,315,16.8,21.9,71,0.00,,,0.00,WUHU216HW,2013-02-10 13:23:00,
2013-02-10 06:26:00,24.7,16.6,29.85,NW,315,12.1,20.8,71,0.00,,,0.00,WUHU216HW,2013-02-10 13:26:00,
2013-02-10 06:27:00,24.5,16.8,29.85,NNW,338,14.8,20.8,72,0.00,,,0.00,WUHU216HW,2013-02-10 13:27:00,
2013-02-10 06:28:00,24.5,16.8,29.85,NNW,338,20.1,20.8,72,0.00,,,0.00,WUHU216HW,2013-02-10 13:28:00,
2013-02-10 06:31:00,24.5,16.8,29.85,NW,315,17.0,20.8,72,0.00,,,0.00,WUHU216HW,2013-02-10 13:31:00,
2013-02-10 06:32:00,24.5,16.8,29.85,NW,315,18.8,20.8,72,0.00,,,0.00,WUHU216HW,2013-02-10 13:32:00,
2013-02-10 06:33:00,24.5,16.8,29.85,NW,315,15.7,20.1,72,0.00,,,0.00,WUHU216HW,2013-02-10 13:33:00,
2013-02-10 06:36:00,24.5,17.0,29.85,NW,315,15.7,21.0,73,0.00,,,0.00,WUHU216HW,2013-02-10 13:36:00,
2013-02-10 06:37:00,24.5,16.8,29.85,NNW,338,19.5,21.0,72,0.00,,,0.00,WUHU216HW,2013-02-10 13:37:00,
2013-02-10 06:38:00,24.5,16.8,29.85,NNW,338,15.0,21.0,72,0.00,,,0.00,WUHU216HW,2013-02-10 13:38:00,
2013-02-10 06:39:00,24.5,16.8,29.85,NNW,338,18.3,21.0,72,0.00,,,0.00,WUHU216HW,2013-02-10 13:39:00,
2013-02-10 06:41:00,24.3,16.6,29.85,NW,315,12.8,21.0,72,0.00,,,0.00,WUHU216HW,2013-02-10 13:41:00,
2013-02-10 06:43:00,24.3,16.6,29.85,NNW,338,16.1,21.0,72,0.00,,,0.00,WUHU216HW,2013-02-10 13:43:00,
2013-02-10 06:44:00,24.3,16.6,29.85,NW,315,14.1,21.0,72,0.00,,,0.00,WUHU216HW,2013-02-10 13:44:00,
2013-02-10 06:46:00,24.3,16.6,29.85,NNW,338,15.9,20.6,72,0.00,,,0.00,WUHU216HW,2013-02-10 13:46:00,
2013-02-10 06:48:00,24.3,16.6,29.85,NW,315,15.0,20.6,72,0.00,,,0.00,WUHU216HW,2013-02-10 13:48:00,
2013-02-10 06:49:00,24.1,16.4,29.85,NW,315,20.6,20.6,72,0.00,,,0.00,WUHU216HW,2013-02-10 13:49:00,
2013-02-10 06:51:00,24.1,16.4,29.85,NW,315,17.4,20.6,72,0.00,,,0.00,WUHU216HW,2013-02-10 13:51:00,
2013-02-10 06:53:00,24.1,16.7,29.85,NW,315,12.1,20.6,73,0.00,,,0.00,WUHU216HW,2013-02-10 13:53:00,
2013-02-10 06:54:00,24.1,16.4,29.85,NNW,338,14.3,20.6,72,0.00,,,0.00,WUHU216HW,2013-02-10 13:54:00,
2013-02-10 06:57:00,24.1,16.4,29.85,NW,315,17.2,20.6,72,0.00,,,0.00,WUHU216HW,2013-02-10 13:57:00,
2013-02-10 06:58:00,24.1,16.4,29.85,NNW,338,22.1,22.1,72,0.00,,,0.00,WUHU216HW,2013-02-10 13:58:00,
2013-02-10 06:59:00,24.1,16.4,29.85,NNW,338,20.1,22.1,72,0.00,,,0.00,WUHU216HW,2013-02-10 13:59:00,
2013-02-10 07:02:00,24.1,16.4,29.85,NW,315,17.9,22.1,72,0.00,,,0.00,WUHU216HW,2013-02-10 14:02:00,
2013-02-10 07:03:00,24.1,16.4,29.85,WNW,293,17.4,22.1,72,0.00,,,0.00,WUHU216HW,2013-02-10 14:03:00,
2013-02-10 07:04:00,24.1,16.4,29.85,NNW,338,17.2,22.1,72,0.00,,,0.00,WUHU216HW,2013-02-10 14:04:00,
2013-02-10 07:07:00,23.9,16.5,29.85,WNW,293,17.2,22.1,73,0.00,,,0.00,WUHU216HW,2013-02-10 14:07:00,
2013-02-10 07:08:00,23.9,16.5,29.85,NW,315,19.0,21.0,73,0.00,,,0.00,WUHU216HW,2013-02-10 14:08:00,
2013-02-10 07:09:00,23.9,16.8,29.85,NW,315,18.3,20.4,74,0.00,,,0.00,WUHU216HW,2013-02-10 14:09:00,
2013-02-10 07:12:00,23.8,16.4,29.85,NW,315,19.7,21.7,73,0.00,,,0.00,WUHU216HW,2013-02-10 14:12:00,
2013-02-10 07:13:00,23.9,16.5,29.85,NNW,338,22.4,22.4,73,0.00,,,0.00,WUHU216HW,2013-02-10 14:13:00,
2013-02-10 07:14:00,23.9,16.8,29.85,NNW,338,13.9,22.4,74,0.00,,,0.00,WUHU216HW,2013-02-10 14:14:00,
2013-02-10 07:17:00,24.1,17.0,29.85,NW,315,20.4,22.4,74,0.00,,,0.00,WUHU216HW,2013-02-10 14:17:00,
2013-02-10 07:18:00,24.1,16.7,29.85,WNW,293,15.2,22.4,73,0.00,,,0.00,WUHU216HW,2013-02-10 14:18:00,
2013-02-10 07:20:00,24.1,16.7,29.85,NW,315,21.0,22.4,73,0.00,,,0.00,WUHU216HW,2013-02-10 14:20:00,
2013-02-10 07:22:00,24.1,17.0,29.85,NW,315,19.9,22.4,74,0.00,,,0.00,WUHU216HW,2013-02-10 14:22:00,
2013-02-10 07:23:00,24.3,17.2,29.85,NW,315,17.4,24.4,74,0.00,,,0.00,WUHU216HW,2013-02-10 14:23:00,
2013-02-10 07:25:00,24.1,17.0,29.85,NW,315,18.3,24.4,74,0.00,,,0.00,WUHU216HW,2013-02-10 14:25:00,
2013-02-10 07:27:00,24.3,17.2,29.85,NW,315,17.0,24.4,74,0.00,,,0.00,WUHU216HW,2013-02-10 14:27:00,
2013-02-10 07:28:00,24.1,17.0,29.85,NNW,338,18.3,24.4,74,0.00,,,0.00,WUHU216HW,2013-02-10 14:28:00,
2013-02-10 07:30:00,24.3,17.2,29.86,NW,315,20.4,24.4,74,0.00,,,0.00,WUHU216HW,2013-02-10 14:30:00,
2013-02-10 07:32:00,24.3,17.2,29.86,NNW,338,19.7,24.4,74,0.00,,,0.00,WUHU216HW,2013-02-10 14:32:00,
2013-02-10 07:33:00,24.3,16.6,29.86,NNW,338,21.0,21.9,72,0.00,,,0.00,WUHU216HW,2013-02-10 14:33:00,
2013-02-10 07:34:00,24.3,16.6,29.86,NW,315,16.8,21.9,72,0.00,,,0.00,WUHU216HW,2013-02-10 14:34:00,
2013-02-10 07:35:00,24.5,16.8,29.86,NW,315,20.8,24.4,72,0.00,,,0.00,WUHU216HW,2013-02-10 14:35:00,
2013-02-10 07:38:00,24.3,17.2,29.86,NW,315,16.1,24.4,74,0.00,,,0.00,WUHU216HW,2013-02-10 14:38:00,
2013-02-10 07:39:00,24.3,17.2,29.86,NW,315,16.1,24.4,74,0.00,,,0.00,WUHU216HW,2013-02-10 14:39:00,
2013-02-10 07:40:00,24.3,17.5,29.86,NW,315,20.4,24.4,75,0.00,,,0.00,WUHU216HW,2013-02-10 14:40:00,
2013-02-10 07:43:00,24.1,17.3,29.86,NW,315,22.4,25.3,75,0.00,,,0.00,WUHU216HW,2013-02-10 14:43:00,
2013-02-10 07:44:00,24.1,17.3,29.87,NNW,338,17.9,25.3,75,0.00,,,0.00,WUHU216HW,2013-02-10 14:44:00,
2013-02-10 07:45:00,24.1,17.7,29.87,NW,315,17.2,25.3,76,0.00,,,0.00,WUHU216HW,2013-02-10 14:45:00,
2013-02-10 07:48:00,24.1,17.7,29.87,NNW,338,15.2,25.3,76,0.00,,,0.00,WUHU216HW,2013-02-10 14:48:00,
2013-02-10 07:49:00,24.1,17.7,29.87,NW,315,17.2,25.3,76,0.00,,,0.00,WUHU216HW,2013-02-10 14:49:00,
2013-02-10 07:50:00,23.9,17.5,29.87,NW,315,19.0,25.3,76,0.00,,,0.00,WUHU216HW,2013-02-10 14:50:00,
2013-02-10 07:53:00,23.9,17.5,29.87,NW,315,19.9,21.5,76,0.00,,,0.00,WUHU216HW,2013-02-10 14:53:00,
2013-02-10 07:54:00,23.9,17.5,29.87,NW,315,17.9,21.5,76,0.00,,,0.00,WUHU216HW,2013-02-10 14:54:00,
2013-02-10 07:55:00,23.9,17.1,29.87,NW,315,22.4,24.4,75,0.00,,,0.00,WUHU216HW,2013-02-10 14:55:00,
2013-02-10 07:58:00,23.9,17.1,29.87,NNW,338,18.6,24.4,75,0.00,,,0.00,WUHU216HW,2013-02-10 14:58:00,
2013-02-10 07:59:00,23.9,17.1,29.87,NW,315,19.5,24.4,75,0.00,,,0.00,WUHU216HW,2013-02-10 14:59:00,
2013-02-10 08:00:00,23.9,17.1,29.87,NW,315,15.9,24.4,75,0.00,,,0.00,WUHU216HW,2013-02-10 15:00:00,
2013-02-10 08:03:00,23.9,17.1,29.87,NNW,338,15.9,24.4,75,0.00,,,0.00,WUHU216HW,2013-02-10 15:03:00,
2013-02-10 08:04:00,23.9,17.1,29.87,NNW,338,17.7,24.4,75,0.00,,,0.00,WUHU216HW,2013-02-10 15:04:00,
2013-02-10 08:05:00,23.9,17.1,29.87,NW,315,14.3,22.4,75,0.00,,,0.00,WUHU216HW,2013-02-10 15:05:00,
2013-02-10 08:06:00,23.9,17.1,29.87,NNW,338,18.1,21.5,75,0.00,,,0.00,WUHU216HW,2013-02-10 15:06:00,
2013-02-10 08:08:00,23.9,17.1,29.87,NNW,338,18.1,20.4,75,0.00,,,0.00,WUHU216HW,2013-02-10 15:08:00,
2013-02-10 08:09:00,23.9,17.1,29.87,NW,315,16.3,20.4,75,0.00,,,0.00,WUHU216HW,2013-02-10 15:09:00,
2013-02-10 08:10:00,23.9,17.1,29.87,NW,315,15.7,20.4,75,0.00,,,0.00,WUHU216HW,2013-02-10 15:10:00,
2013-02-10 08:11:00,23.9,17.1,29.87,NW,315,15.2,20.4,75,0.00,,,0.00,WUHU216HW,2013-02-10 15:11:00,
2013-02-10 08:13:00,23.9,17.1,29.87,NW,315,14.1,20.4,75,0.00,,,0.00,WUHU216HW,2013-02-10 15:13:00,
2013-02-10 08:14:00,24.1,17.3,29.87,NW,315,13.4,20.4,75,0.00,,,0.00,WUHU216HW,2013-02-10 15:14:00,
2013-02-10 08:15:00,24.1,17.3,29.87,NNW,338,11.6,20.4,75,0.00,,,0.00,WUHU216HW,2013-02-10 15:15:00,
2013-02-10 08:16:00,24.1,17.3,29.87,NNW,338,11.6,20.4,75,0.00,,,0.00,WUHU216HW,2013-02-10 15:16:00,
2013-02-10 08:18:00,24.1,17.3,29.87,NW,315,18.6,18.8,75,0.00,,,0.00,WUHU216HW,2013-02-10 15:18:00,
2013-02-10 08:19:00,24.1,17.0,29.87,NW,315,13.6,18.8,74,0.00,,,0.00,WUHU216HW,2013-02-10 15:19:00,
2013-02-10 08:20:00,24.1,17.0,29.87,NNW,338,10.5,18.8,74,0.00,,,0.00,WUHU216HW,2013-02-10 15:20:00,
2013-02-10 08:21:00,24.1,17.0,29.87,NNW,338,13.4,18.8,74,0.00,,,0.00,WUHU216HW,2013-02-10 15:21:00,
2013-02-10 08:23:00,24.1,17.0,29.88,NW,315,14.1,18.6,74,0.00,,,0.00,WUHU216HW,2013-02-10 15:23:00,
2013-02-10 08:25:00,24.1,17.0,29.88,NNW,338,14.3,18.6,74,0.00,,,0.00,WUHU216HW,2013-02-10 15:25:00,
2013-02-10 08:26:00,24.1,17.0,29.88,NNW,338,11.4,18.6,74,0.00,,,0.00,WUHU216HW,2013-02-10 15:26:00,
2013-02-10 08:29:00,24.1,17.0,29.88,NNW,338,13.0,20.1,74,0.00,,,0.00,WUHU216HW,2013-02-10 15:29:00,
2013-02-10 08:30:00,24.1,17.0,29.88,NW,315,14.3,20.1,74,0.00,,,0.00,WUHU216HW,2013-02-10 15:30:00,
2013-02-10 08:31:00,24.1,17.0,29.88,NW,315,17.7,20.1,74,0.00,,,0.00,WUHU216HW,2013-02-10 15:31:00,
2013-02-10 08:34:00,24.1,17.3,29.88,NNW,338,14.3,20.1,75,0.00,,,0.00,WUHU216HW,2013-02-10 15:34:00,
2013-02-10 08:35:00,24.1,17.3,29.88,NNW,338,16.3,20.1,75,0.00,,,0.00,WUHU216HW,2013-02-10 15:35:00,
2013-02-10 08:36:00,24.1,17.3,29.88,NW,315,13.4,20.1,75,0.00,,,0.00,WUHU216HW,2013-02-10 15:36:00,
2013-02-10 08:39:00,24.1,17.3,29.88,NW,315,14.3,19.0,75,0.00,,,0.00,WUHU216HW,2013-02-10 15:39:00,
2013-02-10 08:40:00,24.1,17.9,29.88,NW,315,18.8,20.1,77,0.00,,,0.00,WUHU216HW,2013-02-10 15:40:00,
2013-02-10 08:41:00,23.9,17.8,29.88,NNW,338,12.8,20.1,77,0.00,,,0.00,WUHU216HW,2013-02-10 15:41:00,
2013-02-10 08:44:00,23.8,17.7,29.89,NW,315,13.9,20.1,77,0.00,,,0.00,WUHU216HW,2013-02-10 15:44:00,
2013-02-10 08:46:00,23.8,17.7,29.88,NW,315,17.2,20.1,77,0.00,,,0.00,WUHU216HW,2013-02-10 15:46:00,
2013-02-10 08:47:00,23.9,17.5,29.88,NNW,338,16.6,20.1,76,0.00,,,0.00,WUHU216HW,2013-02-10 15:47:00,
2013-02-10 08:49:00,23.9,17.1,29.89,NW,315,19.0,22.4,75,0.00,,,0.00,WUHU216HW,2013-02-10 15:49:00,
2013-02-10 08:51:00,23.9,17.1,29.89,NW,315,13.4,22.4,75,0.00,,,0.00,WUHU216HW,2013-02-10 15:51:00,
2013-02-10 08:52:00,23.9,17.1,29.89,NNW,338,15.7,22.4,75,0.00,,,0.00,WUHU216HW,2013-02-10 15:52:00,
2013-02-10 08:54:00,23.9,17.1,29.89,NW,315,14.1,22.4,75,0.00,,,0.00,WUHU216HW,2013-02-10 15:54:00,
2013-02-10 08:56:00,23.9,16.8,29.89,NNW,338,15.2,22.4,74,0.00,,,0.00,WUHU216HW,2013-02-10 15:56:00,
2013-02-10 08:57:00,24.1,17.0,29.89,NW,315,12.1,22.4,74,0.00,,,0.00,WUHU216HW,2013-02-10 15:57:00,
2013-02-10 09:00:00,24.1,17.0,29.89,NW,315,16.8,18.6,74,0.00,,,0.00,WUHU216HW,2013-02-10 16:00:00,
2013-02-10 09:01:00,24.1,17.0,29.89,NW,315,15.0,18.6,74,0.00,,,0.00,WUHU216HW,2013-02-10 16:01:00,
2013-02-10 09:02:00,24.1,17.0,29.89,NW,315,12.1,18.6,74,0.00,,,0.00,WUHU216HW,2013-02-10 16:02:00,
2013-02-10 09:05:00,24.1,16.7,29.89,NW,315,19.2,19.2,73,0.00,,,0.00,WUHU216HW,2013-02-10 16:05:00,
2013-02-10 09:06:00,24.1,16.7,29.89,NW,315,14.3,19.2,73,0.00,,,0.00,WUHU216HW,2013-02-10 16:06:00,
2013-02-10 09:07:00,24.1,16.7,29.89,NW,315,15.4,19.2,73,0.00,,,0.00,WUHU216HW,2013-02-10 16:07:00,
2013-02-10 09:10:00,24.1,17.0,29.89,NW,315,14.1,19.2,74,0.00,,,0.00,WUHU216HW,2013-02-10 16:10:00,
2013-02-10 09:11:00,24.3,17.2,29.89,NNW,338,17.9,19.2,74,0.00,,,0.00,WUHU216HW,2013-02-10 16:11:00,
2013-02-10 09:12:00,24.3,16.8,29.89,NW,315,17.7,20.1,73,0.00,,,0.00,WUHU216HW,2013-02-10 16:12:00,
2013-02-10 09:15:00,24.5,17.4,29.89,NW,315,12.8,20.1,74,0.00,,,0.00,WUHU216HW,2013-02-10 16:15:00,
2013-02-10 09:16:00,24.7,17.2,29.89,NNW,338,12.1,20.1,73,0.00,,,0.00,WUHU216HW,2013-02-10 16:16:00,
2013-02-10 09:17:00,24.7,16.8,29.89,NW,315,14.3,20.1,72,0.00,,,0.00,WUHU216HW,2013-02-10 16:17:00,
2013-02-10 09:20:00,24.5,16.8,29.89,NNW,338,15.0,20.1,72,0.00,,,0.00,WUHU216HW,2013-02-10 16:20:00,
2013-02-10 09:21:00,24.5,16.8,29.89,NNW,338,17.2,20.4,72,0.00,,,0.00,WUHU216HW,2013-02-10 16:21:00,
2013-02-10 09:22:00,24.5,16.8,29.89,NW,315,14.3,20.4,72,0.00,,,0.00,WUHU216HW,2013-02-10 16:22:00,
2013-02-10 09:25:00,24.7,16.8,29.89,NNW,338,15.2,20.4,72,0.00,,,0.00,WUHU216HW,2013-02-10 16:25:00,
2013-02-10 09:27:00,24.7,16.8,29.89,NNW,338,14.5,20.4,72,0.00,,,0.00,WUHU216HW,2013-02-10 16:27:00,
2013-02-10 09:28:00,24.7,16.6,29.89,NW,315,17.2,20.4,71,0.00,,,0.00,WUHU216HW,2013-02-10 16:28:00,
2013-02-10 09:30:00,24.7,16.6,29.89,NW,315,14.5,20.4,71,0.00,,,0.00,WUHU216HW,2013-02-10 16:30:00,
2013-02-10 09:32:00,24.7,16.6,29.88,NW,315,15.7,19.2,71,0.00,,,0.00,WUHU216HW,2013-02-10 16:32:00,
2013-02-10 09:33:00,24.7,16.2,29.88,NW,315,13.4,19.2,70,0.00,,,0.00,WUHU216HW,2013-02-10 16:33:00,
2013-02-10 09:35:00,24.8,16.4,29.88,NNW,338,13.4,19.2,70,0.00,,,0.00,WUHU216HW,2013-02-10 16:35:00,
2013-02-10 09:37:00,24.8,16.8,29.88,NW,315,17.9,19.2,71,0.00,,,0.00,WUHU216HW,2013-02-10 16:37:00,
2013-02-10 09:38:00,25.0,16.6,29.88,NNW,338,16.6,20.1,70,0.00,,,0.00,WUHU216HW,2013-02-10 16:38:00,
2013-02-10 09:40:00,25.2,16.7,29.88,NNW,338,13.4,20.4,70,0.00,,,0.00,WUHU216HW,2013-02-10 16:40:00,
2013-02-10 09:42:00,25.2,16.7,29.89,NW,315,13.4,20.4,70,0.00,,,0.00,WUHU216HW,2013-02-10 16:42:00,
2013-02-10 09:43:00,25.2,16.7,29.89,NW,315,18.3,20.4,70,0.00,,,0.00,WUHU216HW,2013-02-10 16:43:00,
2013-02-10 09:45:00,25.4,16.9,29.89,NW,315,21.5,21.5,70,0.00,,,0.00,WUHU216HW,2013-02-10 16:45:00,
2013-02-10 09:48:00,25.2,16.7,29.89,NNW,338,18.3,23.3,70,0.00,,,0.00,WUHU216HW,2013-02-10 16:48:00,
2013-02-10 09:50:00,25.0,16.6,29.89,NNW,338,19.9,23.3,70,0.00,,,0.00,WUHU216HW,2013-02-10 16:50:00,
2013-02-10 09:53:00,25.0,16.9,29.89,NNW,338,20.6,23.3,71,0.00,,,0.00,WUHU216HW,2013-02-10 16:53:00,
2013-02-10 09:54:00,25.0,16.9,29.89,NW,315,19.5,23.3,71,0.00,,,0.00,WUHU216HW,2013-02-10 16:54:00,
2013-02-10 09:56:00,24.8,16.8,29.89,NNW,338,18.1,23.3,71,0.00,,,0.00,WUHU216HW,2013-02-10 16:56:00,
2013-02-10 09:58:00,24.8,16.8,29.89,NNW,338,21.9,22.4,71,0.00,,,0.00,WUHU216HW,2013-02-10 16:58:00,
2013-02-10 09:59:00,24.8,16.8,29.89,NW,315,18.3,22.4,71,0.00,,,0.00,WUHU216HW,2013-02-10 16:59:00,
2013-02-10 10:01:00,24.8,16.8,29.89,NNW,338,16.3,22.4,71,0.00,,,0.00,WUHU216HW,2013-02-10 17:01:00,
2013-02-10 10:03:00,24.7,16.8,29.89,NNW,338,16.3,22.6,72,0.00,,,0.00,WUHU216HW,2013-02-10 17:03:00,
2013-02-10 10:04:00,24.7,16.6,29.89,NNW,338,21.5,22.6,71,0.00,,,0.00,WUHU216HW,2013-02-10 17:04:00,
2013-02-10 10:06:00,24.8,17.0,29.89,NW,315,23.3,23.3,72,0.00,,,0.00,WUHU216HW,2013-02-10 17:06:00,
2013-02-10 10:08:00,25.0,16.6,29.89,NNW,338,19.2,26.2,70,0.00,,,0.00,WUHU216HW,2013-02-10 17:08:00,
2013-02-10 10:09:00,25.2,17.1,29.89,NW,315,17.2,26.2,71,0.00,,,0.00,WUHU216HW,2013-02-10 17:09:00,
2013-02-10 10:11:00,25.7,17.6,29.89,NNW,338,16.3,26.2,71,0.00,,,0.00,WUHU216HW,2013-02-10 17:11:00,
2013-02-10 10:13:00,25.9,17.5,29.89,WNW,293,23.7,26.2,70,0.00,,,0.00,WUHU216HW,2013-02-10 17:13:00,
2013-02-10 10:14:00,25.7,16.9,29.89,NW,315,22.4,26.2,69,0.00,,,0.00,WUHU216HW,2013-02-10 17:14:00,
2013-02-10 10:16:00,25.6,17.1,29.88,NNW,338,17.2,26.2,70,0.00,,,0.00,WUHU216HW,2013-02-10 17:16:00,
2013-02-10 10:18:00,25.6,16.7,29.89,WNW,293,21.5,24.8,69,0.00,,,0.00,WUHU216HW,2013-02-10 17:18:00,
2013-02-10 10:19:00,25.6,16.7,29.88,NW,315,23.9,24.8,69,0.00,,,0.00,WUHU216HW,2013-02-10 17:19:00,
2013-02-10 10:20:00,25.6,16.7,29.88,NNW,338,25.3,25.3,69,0.00,,,0.00,WUHU216HW,2013-02-10 17:20:00,
2013-02-10 10:21:00,25.4,16.6,29.89,NW,315,21.0,25.9,69,0.00,,,0.00,WUHU216HW,2013-02-10 17:21:00,
2013-02-10 10:23:00,25.2,16.7,29.89,NW,315,20.1,25.9,70,0.00,,,0.00,WUHU216HW,2013-02-10 17:23:00,
2013-02-10 10:24:00,25.2,16.7,29.88,NNW,338,19.0,25.9,70,0.00,,,0.00,WUHU216HW,2013-02-10 17:24:00,
2013-02-10 10:25:00,25.2,16.7,29.88,NNW,338,20.4,25.9,70,0.00,,,0.00,WUHU216HW,2013-02-10 17:25:00,
2013-02-10 10:26:00,25.0,16.2,29.89,NNW,338,17.9,25.9,69,0.00,,,0.00,WUHU216HW,2013-02-10 17:26:00,
2013-02-10 10:28:00,25.2,16.7,29.89,NW,315,15.4,25.9,70,0.00,,,0.00,WUHU216HW,2013-02-10 17:28:00,
2013-02-10 10:29:00,25.2,16.7,29.89,NW,315,22.1,25.9,70,0.00,,,0.00,WUHU216HW,2013-02-10 17:29:00,
2013-02-10 10:30:00,25.0,16.6,29.89,NNW,338,25.9,25.9,70,0.00,,,0.00,WUHU216HW,2013-02-10 17:30:00,
2013-02-10 10:32:00,25.2,16.4,29.89,NW,315,22.1,25.9,69,0.00,,,0.00,WUHU216HW,2013-02-10 17:32:00,
2013-02-10 10:33:00,25.0,16.6,29.89,NW,315,20.1,25.9,70,0.00,,,0.00,WUHU216HW,2013-02-10 17:33:00,
2013-02-10 10:34:00,25.0,16.6,29.89,NNW,338,18.8,25.9,70,0.00,,,0.00,WUHU216HW,2013-02-10 17:34:00,
2013-02-10 10:35:00,25.0,16.6,29.89,NW,315,18.6,25.9,70,0.00,,,0.00,WUHU216HW,2013-02-10 17:35:00,
2013-02-10 10:37:00,25.0,16.6,29.89,NNW,338,19.9,25.9,70,0.00,,,0.00,WUHU216HW,2013-02-10 17:37:00,
2013-02-10 10:38:00,25.2,16.7,29.89,NW,315,20.1,25.9,70,0.00,,,0.00,WUHU216HW,2013-02-10 17:38:00,
2013-02-10 10:39:00,25.4,16.9,29.90,NNW,338,23.0,25.9,70,0.00,,,0.00,WUHU216HW,2013-02-10 17:39:00,
2013-02-10 10:40:00,25.4,16.9,29.89,NNW,338,20.1,24.8,70,0.00,,,0.00,WUHU216HW,2013-02-10 17:40:00,
2013-02-10 10:42:00,25.4,17.3,29.89,NW,315,15.7,24.8,71,0.00,,,0.00,WUHU216HW,2013-02-10 17:42:00,
2013-02-10 10:44:00,25.7,16.9,29.89,NNW,338,15.0,24.8,69,0.00,,,0.00,WUHU216HW,2013-02-10 17:44:00,
2013-02-10 10:45:00,25.9,17.1,29.89,NW,315,17.9,24.4,69,0.00,,,0.00,WUHU216HW,2013-02-10 17:45:00,
2013-02-10 10:47:00,26.1,17.6,29.90,NW,315,15.7,24.4,70,0.00,,,0.00,WUHU216HW,2013-02-10 17:47:00,
2013-02-10 10:49:00,26.3,17.5,29.90,NNW,338,16.8,24.4,69,0.00,,,0.00,WUHU216HW,2013-02-10 17:49:00,
2013-02-10 10:51:00,26.1,16.9,29.90,NNW,338,22.4,23.3,68,0.00,,,0.00,WUHU216HW,2013-02-10 17:51:00,
2013-02-10 10:52:00,26.1,16.9,29.90,NNW,338,20.4,23.3,68,0.00,,,0.00,WUHU216HW,2013-02-10 17:52:00,
2013-02-10 10:54:00,25.9,16.7,29.90,NNW,338,19.2,23.3,68,0.00,,,0.00,WUHU216HW,2013-02-10 17:54:00,
2013-02-10 10:55:00,25.7,16.6,29.90,NNW,338,18.6,23.3,68,0.00,,,0.00,WUHU216HW,2013-02-10 17:55:00,
2013-02-10 10:56:00,25.7,16.6,29.90,NNW,338,18.6,23.3,68,0.00,,,0.00,WUHU216HW,2013-02-10 17:56:00,
2013-02-10 10:57:00,25.9,16.0,29.89,NW,315,17.7,23.3,66,0.00,,,0.00,WUHU216HW,2013-02-10 17:57:00,
2013-02-10 10:59:00,25.7,16.2,29.90,NW,315,17.2,23.3,67,0.00,,,0.00,WUHU216HW,2013-02-10 17:59:00,
2013-02-10 11:00:00,25.7,16.2,29.90,NW,315,15.2,22.8,67,0.00,,,0.00,WUHU216HW,2013-02-10 18:00:00,
2013-02-10 11:01:00,25.9,16.4,29.90,NW,315,17.7,22.8,67,0.00,,,0.00,WUHU216HW,2013-02-10 18:01:00,
2013-02-10 11:02:00,25.7,16.2,29.90,NNW,338,20.1,22.8,67,0.00,,,0.00,WUHU216HW,2013-02-10 18:02:00,
2013-02-10 11:04:00,25.9,16.4,29.90,NW,315,17.9,22.8,67,0.00,,,0.00,WUHU216HW,2013-02-10 18:04:00,
2013-02-10 11:05:00,25.9,16.4,29.90,NW,315,19.9,22.8,67,0.00,,,0.00,WUHU216HW,2013-02-10 18:05:00,
2013-02-10 11:06:00,25.9,16.7,29.90,NNW,338,16.3,20.6,68,0.00,,,0.00,WUHU216HW,2013-02-10 18:06:00,
2013-02-10 11:07:00,25.9,16.7,29.90,NNW,338,19.7,20.6,68,0.00,,,0.00,WUHU216HW,2013-02-10 18:07:00,
2013-02-10 11:09:00,25.9,16.7,29.90,NW,315,19.9,21.5,68,0.00,,,0.00,WUHU216HW,2013-02-10 18:09:00,
2013-02-10 11:10:00,25.9,16.4,29.90,NNW,338,19.0,21.5,67,0.00,,,0.00,WUHU216HW,2013-02-10 18:10:00,
2013-02-10 11:11:00,25.9,16.4,29.90,NW,315,15.9,21.5,67,0.00,,,0.00,WUHU216HW,2013-02-10 18:11:00,
2013-02-10 11:13:00,25.9,16.7,29.90,NW,315,14.5,21.5,68,0.00,,,0.00,WUHU216HW,2013-02-10 18:13:00,
2013-02-10 11:14:00,25.9,16.4,29.90,NNW,338,19.2,21.5,67,0.00,,,0.00,WUHU216HW,2013-02-10 18:14:00,
2013-02-10 11:15:00,25.9,16.4,29.90,NW,315,20.1,21.5,67,0.00,,,0.00,WUHU216HW,2013-02-10 18:15:00,
2013-02-10 11:16:00,26.1,16.6,29.90,NNW,338,15.0,21.5,67,0.00,,,0.00,WUHU216HW,2013-02-10 18:16:00,
2013-02-10 11:18:00,26.1,16.6,29.90,NNW,338,22.4,22.4,67,0.00,,,0.00,WUHU216HW,2013-02-10 18:18:00,
2013-02-10 11:19:00,26.1,16.2,29.90,NW,315,19.2,22.4,66,0.00,,,0.00,WUHU216HW,2013-02-10 18:19:00,
2013-02-10 11:20:00,26.1,16.2,29.90,NW,315,17.0,22.4,66,0.00,,,0.00,WUHU216HW,2013-02-10 18:20:00,
2013-02-10 11:22:00,26.1,16.2,29.90,NNW,338,23.0,23.0,66,0.00,,,0.00,WUHU216HW,2013-02-10 18:22:00,
2013-02-10 11:24:00,25.7,15.8,29.90,NW,315,22.1,23.0,66,0.00,,,0.00,WUHU216HW,2013-02-10 18:24:00,
2013-02-10 11:25:00,25.6,16.0,29.90,NNW,338,20.6,23.0,67,0.00,,,0.00,WUHU216HW,2013-02-10 18:25:00,
2013-02-10 11:27:00,25.6,16.0,29.90,NW,315,22.4,23.0,67,0.00,,,0.00,WUHU216HW,2013-02-10 18:27:00,
2013-02-10 11:29:00,25.6,16.0,29.90,NNW,338,21.3,23.0,67,0.00,,,0.00,WUHU216HW,2013-02-10 18:29:00,
2013-02-10 11:30:00,25.6,16.4,29.90,NW,315,17.0,23.0,68,0.00,,,0.00,WUHU216HW,2013-02-10 18:30:00,
2013-02-10 11:32:00,25.7,16.2,29.90,NW,315,17.9,23.0,67,0.00,,,0.00,WUHU216HW,2013-02-10 18:32:00,
2013-02-10 11:34:00,25.9,16.4,29.90,NW,315,17.2,23.0,67,0.00,,,0.00,WUHU216HW,2013-02-10 18:34:00,
2013-02-10 11:35:00,25.9,16.4,29.90,WNW,293,15.7,22.4,67,0.00,,,0.00,WUHU216HW,2013-02-10 18:35:00,
2013-02-10 11:37:00,26.1,16.2,29.90,NW,315,17.2,21.5,66,0.00,,,0.00,WUHU216HW,2013-02-10 18:37:00,
2013-02-10 11:39:00,26.1,16.2,29.90,NNW,338,19.7,21.5,66,0.00,,,0.00,WUHU216HW,2013-02-10 18:39:00,
2013-02-10 11:40:00,26.3,16.0,29.90,NNW,338,17.0,24.4,65,0.00,,,0.00,WUHU216HW,2013-02-10 18:40:00,
2013-02-10 11:42:00,26.3,15.7,29.90,WNW,293,21.3,24.4,64,0.00,,,0.00,WUHU216HW,2013-02-10 18:42:00,
2013-02-10 11:44:00,26.3,15.3,29.90,NW,315,22.4,26.2,63,0.00,,,0.00,WUHU216HW,2013-02-10 18:44:00,
2013-02-10 11:45:00,26.1,15.5,29.90,NNW,338,16.3,26.2,64,0.00,,,0.00,WUHU216HW,2013-02-10 18:45:00,
2013-02-10 11:47:00,26.3,16.0,29.90,NW,315,19.7,26.2,65,0.00,,,0.00,WUHU216HW,2013-02-10 18:47:00,
2013-02-10 11:49:00,26.5,15.8,29.89,NW,315,19.7,26.2,64,0.00,,,0.00,WUHU216HW,2013-02-10 18:49:00,
2013-02-10 11:51:00,26.8,16.2,29.89,NNW,338,20.4,26.2,64,0.00,,,0.00,WUHU216HW,2013-02-10 18:51:00,
2013-02-10 11:53:00,27.0,16.0,29.89,NW,315,16.3,26.2,63,0.00,,,0.00,WUHU216HW,2013-02-10 18:53:00,
2013-02-10 11:54:00,27.0,15.7,29.89,NW,315,20.1,24.2,62,0.00,,,0.00,WUHU216HW,2013-02-10 18:54:00,
2013-02-10 11:56:00,27.0,15.7,29.89,NNW,338,19.9,24.2,62,0.00,,,0.00,WUHU216HW,2013-02-10 18:56:00,
2013-02-10 11:58:00,27.0,16.0,29.89,NNW,338,20.1,24.2,63,0.00,,,0.00,WUHU216HW,2013-02-10 18:58:00,
2013-02-10 11:59:00,27.0,15.7,29.89,NNW,338,18.8,24.2,62,0.00,,,0.00,WUHU216HW,2013-02-10 18:59:00,
2013-02-10 12:01:00,27.4,16.0,29.89,NNW,338,21.9,24.2,62,0.00,,,0.00,WUHU216HW,2013-02-10 19:01:00,
2013-02-10 12:03:00,27.4,16.0,29.89,NNW,338,19.9,23.9,62,0.00,,,0.00,WUHU216HW,2013-02-10 19:03:00,
2013-02-10 12:04:00,27.4,16.0,29.88,NNW,338,19.9,25.1,62,0.00,,,0.00,WUHU216HW,2013-02-10 19:04:00,
2013-02-10 12:06:00,27.2,15.8,29.88,North,0,17.7,25.1,62,0.00,,,0.00,WUHU216HW,2013-02-10 19:06:00,
2013-02-10 12:08:00,27.0,16.0,29.88,NW,315,16.8,25.1,63,0.00,,,0.00,WUHU216HW,2013-02-10 19:08:00,
2013-02-10 12:09:00,27.0,15.7,29.88,NNW,338,22.4,26.8,62,0.00,,,0.00,WUHU216HW,2013-02-10 19:09:00,
2013-02-10 12:11:00,26.8,15.5,29.88,NNW,338,22.8,26.8,62,0.00,,,0.00,WUHU216HW,2013-02-10 19:11:00,
2013-02-10 12:13:00,26.5,15.1,29.88,NNW,338,22.1,26.8,62,0.00,,,0.00,WUHU216HW,2013-02-10 19:13:00,
2013-02-10 12:14:00,26.3,15.3,29.88,NNW,338,21.9,26.8,63,0.00,,,0.00,WUHU216HW,2013-02-10 19:14:00,
2013-02-10 12:16:00,26.3,15.7,29.88,North,0,18.6,26.8,64,0.00,,,0.00,WUHU216HW,2013-02-10 19:16:00,
2013-02-10 12:17:00,26.3,15.7,29.88,NW,315,15.0,26.8,64,0.00,,,0.00,WUHU216HW,2013-02-10 19:17:00,
2013-02-10 12:18:00,26.3,16.0,29.87,NNW,338,20.1,26.8,65,0.00,,,0.00,WUHU216HW,2013-02-10 19:18:00,
2013-02-10 12:19:00,26.1,15.5,29.88,NNW,338,23.5,26.2,64,0.00,,,0.00,WUHU216HW,2013-02-10 19:19:00,
2013-02-10 12:21:00,26.1,15.5,29.87,NW,315,17.7,24.8,64,0.00,,,0.00,WUHU216HW,2013-02-10 19:21:00,
2013-02-10 12:22:00,26.3,16.0,29.87,NNW,338,26.4,26.4,65,0.00,,,0.00,WUHU216HW,2013-02-10 19:22:00,
2013-02-10 12:23:00,26.3,15.7,29.87,NNW,338,17.7,26.4,64,0.00,,,0.00,WUHU216HW,2013-02-10 19:23:00,
2013-02-10 12:25:00,25.9,15.7,29.87,NW,315,15.4,26.4,65,0.00,,,0.00,WUHU216HW,2013-02-10 19:25:00,
2013-02-10 12:26:00,25.9,15.0,29.87,NNW,338,22.8,26.4,63,0.00,,,0.00,WUHU216HW,2013-02-10 19:26:00,
2013-02-10 12:27:00,25.7,15.6,29.87,NNW,338,23.7,26.4,65,0.00,,,0.00,WUHU216HW,2013-02-10 19:27:00,
2013-02-10 12:28:00,25.9,15.7,29.88,NNW,338,23.7,26.4,65,0.00,,,0.00,WUHU216HW,2013-02-10 19:28:00,
2013-02-10 12:30:00,26.3,15.7,29.87,NNW,338,18.6,28.0,64,0.00,,,0.00,WUHU216HW,2013-02-10 19:30:00,
2013-02-10 12:31:00,26.6,15.7,29.87,NNW,338,21.7,28.0,63,0.00,,,0.00,WUHU216HW,2013-02-10 19:31:00,
2013-02-10 12:33:00,27.0,16.4,29.87,NW,315,18.6,28.0,64,0.00,,,0.00,WUHU216HW,2013-02-10 19:33:00,
2013-02-10 12:35:00,27.7,16.4,29.87,NW,315,19.7,28.0,62,0.00,,,0.00,WUHU216HW,2013-02-10 19:35:00,
2013-02-10 12:36:00,27.7,16.4,29.87,NNW,338,23.9,28.0,62,0.00,,,0.00,WUHU216HW,2013-02-10 19:36:00,
2013-02-10 12:38:00,27.9,16.6,29.87,NW,315,15.4,28.0,62,0.00,,,0.00,WUHU216HW,2013-02-10 19:38:00,
2013-02-10 12:40:00,27.9,15.8,29.87,NNW,338,22.6,25.7,60,0.00,,,0.00,WUHU216HW,2013-02-10 19:40:00,
2013-02-10 12:42:00,27.7,15.7,29.88,NW,315,22.6,25.7,60,0.00,,,0.00,WUHU216HW,2013-02-10 19:42:00,
2013-02-10 12:43:00,27.7,16.0,29.87,NW,315,17.9,25.7,61,0.00,,,0.00,WUHU216HW,2013-02-10 19:43:00,
2013-02-10 12:45:00,27.7,16.4,29.88,NNW,338,20.8,27.1,62,0.00,,,0.00,WUHU216HW,2013-02-10 19:45:00,
2013-02-10 12:47:00,27.7,16.0,29.88,NW,315,21.5,27.1,61,0.00,,,0.00,WUHU216HW,2013-02-10 19:47:00,
2013-02-10 12:48:00,27.7,16.0,29.88,NW,315,17.9,27.1,61,0.00,,,0.00,WUHU216HW,2013-02-10 19:48:00,
2013-02-10 12:49:00,27.7,16.4,29.88,NNW,338,18.6,27.1,62,0.00,,,0.00,WUHU216HW,2013-02-10 19:49:00,
2013-02-10 12:50:00,27.7,16.0,29.88,NW,315,16.6,27.1,61,0.00,,,0.00,WUHU216HW,2013-02-10 19:50:00,
2013-02-10 12:52:00,27.5,16.2,29.88,NNW,338,15.4,27.1,62,0.00,,,0.00,WUHU216HW,2013-02-10 19:52:00,
2013-02-10 12:53:00,27.5,16.2,29.88,NW,315,19.5,27.1,62,0.00,,,0.00,WUHU216HW,2013-02-10 19:53:00,
2013-02-10 12:54:00,27.5,16.2,29.88,North,0,17.4,23.3,62,0.00,,,0.00,WUHU216HW,2013-02-10 19:54:00,
2013-02-10 12:55:00,27.7,16.0,29.88,North,0,19.2,23.3,61,0.00,,,0.00,WUHU216HW,2013-02-10 19:55:00,
2013-02-10 12:57:00,27.9,16.2,29.88,NNW,338,19.2,23.3,61,0.00,,,0.00,WUHU216HW,2013-02-10 19:57:00,
2013-02-10 12:59:00,27.9,15.8,29.88,NNW,338,25.1,25.1,60,0.00,,,0.00,WUHU216HW,2013-02-10 19:59:00,
2013-02-10 13:00:00,27.5,15.8,29.88,NNW,338,20.4,25.1,61,0.00,,,0.00,WUHU216HW,2013-02-10 20:00:00,
2013-02-10 13:02:00,27.0,15.3,29.88,North,0,16.6,25.1,61,0.00,,,0.00,WUHU216HW,2013-02-10 20:02:00,
2013-02-10 13:04:00,27.0,15.7,29.88,NNW,338,18.6,25.1,62,0.00,,,0.00,WUHU216HW,2013-02-10 20:04:00,
2013-02-10 13:05:00,27.2,15.8,29.88,NNW,338,23.5,25.5,62,0.00,,,0.00,WUHU216HW,2013-02-10 20:05:00,
2013-02-10 13:07:00,27.2,15.8,29.88,NNW,338,17.2,25.5,62,0.00,,,0.00,WUHU216HW,2013-02-10 20:07:00,
2013-02-10 13:09:00,27.5,16.2,29.88,NW,315,16.1,25.5,62,0.00,,,0.00,WUHU216HW,2013-02-10 20:09:00,
2013-02-10 13:11:00,27.7,16.4,29.88,NNW,338,21.3,25.5,62,0.00,,,0.00,WUHU216HW,2013-02-10 20:11:00,
2013-02-10 13:13:00,27.7,16.4,29.88,NNW,338,14.3,25.5,62,0.00,,,0.00,WUHU216HW,2013-02-10 20:13:00,
2013-02-10 13:14:00,27.7,16.4,29.88,NW,315,15.2,25.5,62,0.00,,,0.00,WUHU216HW,2013-02-10 20:14:00,
2013-02-10 13:16:00,27.9,16.2,29.88,NNW,338,20.8,21.3,61,0.00,,,0.00,WUHU216HW,2013-02-10 20:16:00,
2013-02-10 13:18:00,27.9,15.8,29.88,NNW,338,17.2,21.3,60,0.00,,,0.00,WUHU216HW,2013-02-10 20:18:00,
2013-02-10 13:19:00,27.9,16.2,29.88,NNW,338,16.3,21.3,61,0.00,,,0.00,WUHU216HW,2013-02-10 20:19:00,
2013-02-10 13:21:00,27.7,15.7,29.88,NNW,338,16.1,21.3,60,0.00,,,0.00,WUHU216HW,2013-02-10 20:21:00,
2013-02-10 13:23:00,27.7,16.0,29.88,NNW,338,15.0,21.0,61,0.00,,,0.00,WUHU216HW,2013-02-10 20:23:00,
2013-02-10 13:24:00,27.7,15.7,29.88,NW,315,12.5,21.0,60,0.00,,,0.00,WUHU216HW,2013-02-10 20:24:00,
2013-02-10 13:25:00,27.7,16.0,29.88,NNW,338,14.8,21.0,61,0.00,,,0.00,WUHU216HW,2013-02-10 20:25:00,
2013-02-10 13:26:00,27.7,15.7,29.88,NNW,338,23.7,23.7,60,0.00,,,0.00,WUHU216HW,2013-02-10 20:26:00,
2013-02-10 13:28:00,27.7,15.7,29.88,NW,315,21.3,23.7,60,0.00,,,0.00,WUHU216HW,2013-02-10 20:28:00,
2013-02-10 13:29:00,27.7,16.0,29.88,NNW,338,17.9,23.7,61,0.00,,,0.00,WUHU216HW,2013-02-10 20:29:00,
2013-02-10 13:30:00,27.7,16.0,29.88,NNW,338,16.3,23.7,61,0.00,,,0.00,WUHU216HW,2013-02-10 20:30:00,
2013-02-10 13:31:00,27.4,15.7,29.88,NNW,338,20.4,23.7,61,0.00,,,0.00,WUHU216HW,2013-02-10 20:31:00,
2013-02-10 13:33:00,27.4,15.7,29.88,NNW,338,18.8,23.7,61,0.00,,,0.00,WUHU216HW,2013-02-10 20:33:00,
2013-02-10 13:34:00,27.4,15.7,29.88,NW,315,17.9,23.7,61,0.00,,,0.00,WUHU216HW,2013-02-10 20:34:00,
2013-02-10 13:35:00,27.4,15.7,29.88,NNW,338,19.5,23.7,61,0.00,,,0.00,WUHU216HW,2013-02-10 20:35:00,
2013-02-10 13:36:00,27.5,15.8,29.88,NNW,338,18.3,21.9,61,0.00,,,0.00,WUHU216HW,2013-02-10 20:36:00,
2013-02-10 13:39:00,27.7,15.7,29.88,NNW,338,15.7,21.9,60,0.00,,,0.00,WUHU216HW,2013-02-10 20:39:00,
2013-02-10 13:40:00,27.7,16.0,29.88,NNW,338,11.4,21.9,61,0.00,,,0.00,WUHU216HW,2013-02-10 20:40:00,
2013-02-10 13:42:00,27.9,15.8,29.88,NW,315,23.0,23.7,60,0.00,,,0.00,WUHU216HW,2013-02-10 20:42:00,
2013-02-10 13:44:00,27.9,16.2,29.88,NW,315,18.3,23.7,61,0.00,,,0.00,WUHU216HW,2013-02-10 20:44:00,
2013-02-10 13:45:00,27.9,15.4,29.88,NNW,338,24.4,24.4,59,0.00,,,0.00,WUHU216HW,2013-02-10 20:45:00,
2013-02-10 13:47:00,27.5,15.8,29.88,NNW,338,17.9,24.4,61,0.00,,,0.00,WUHU216HW,2013-02-10 20:47:00,
2013-02-10 13:49:00,27.7,16.4,29.88,NW,315,14.8,24.4,62,0.00,,,0.00,WUHU216HW,2013-02-10 20:49:00,
2013-02-10 13:50:00,27.9,16.6,29.88,NW,315,13.0,24.4,62,0.00,,,0.00,WUHU216HW,2013-02-10 20:50:00,
2013-02-10 13:52:00,28.1,16.7,29.88,NW,315,13.0,24.4,62,0.00,,,0.00,WUHU216HW,2013-02-10 20:52:00,
2013-02-10 13:54:00,28.1,16.0,29.88,NNW,338,23.5,24.4,60,0.00,,,0.00,WUHU216HW,2013-02-10 20:54:00,
2013-02-10 13:55:00,27.9,15.8,29.88,NW,315,20.8,23.5,60,0.00,,,0.00,WUHU216HW,2013-02-10 20:55:00,
2013-02-10 13:57:00,27.7,15.7,29.88,NNW,338,15.0,23.5,60,0.00,,,0.00,WUHU216HW,2013-02-10 20:57:00,
2013-02-10 13:59:00,27.7,15.7,29.88,NNW,338,18.8,23.5,60,0.00,,,0.00,WUHU216HW,2013-02-10 20:59:00,
2013-02-10 14:00:00,27.7,15.7,29.88,NNW,338,20.1,23.5,60,0.00,,,0.00,WUHU216HW,2013-02-10 21:00:00,
2013-02-10 14:02:00,27.5,16.2,29.88,NNW,338,19.2,24.4,62,0.00,,,0.00,WUHU216HW,2013-02-10 21:02:00,
2013-02-10 14:04:00,27.5,15.8,29.88,NW,315,20.1,24.4,61,0.00,,,0.00,WUHU216HW,2013-02-10 21:04:00,
2013-02-10 14:05:00,27.7,16.0,29.87,NNW,338,17.4,24.4,61,0.00,,,0.00,WUHU216HW,2013-02-10 21:05:00,
2013-02-10 14:06:00,27.7,16.4,29.87,NW,315,14.8,24.4,62,0.00,,,0.00,WUHU216HW,2013-02-10 21:06:00,
2013-02-10 14:08:00,27.9,16.2,29.87,NNW,338,21.3,24.4,61,0.00,,,0.00,WUHU216HW,2013-02-10 21:08:00,
2013-02-10 14:09:00,27.9,16.2,29.87,NW,315,21.5,24.4,61,0.00,,,0.00,WUHU216HW,2013-02-10 21:09:00,
2013-02-10 14:10:00,28.1,16.4,29.87,WNW,293,15.2,24.4,61,0.00,,,0.00,WUHU216HW,2013-02-10 21:10:00,
2013-02-10 14:11:00,28.1,16.4,29.87,WNW,293,15.2,24.4,61,0.00,,,0.00,WUHU216HW,2013-02-10 21:11:00,
2013-02-10 14:13:00,28.3,16.2,29.87,NNW,338,16.8,21.5,60,0.00,,,0.00,WUHU216HW,2013-02-10 21:13:00,
2013-02-10 14:15:00,28.3,15.4,29.87,NNW,338,20.8,24.2,58,0.00,,,0.00,WUHU216HW,2013-02-10 21:15:00,
2013-02-10 14:16:00,28.3,15.4,29.87,NW,315,21.9,24.2,58,0.00,,,0.00,WUHU216HW,2013-02-10 21:16:00,
2013-02-10 14:18:00,27.9,15.4,29.87,NNW,338,21.9,24.8,59,0.00,,,0.00,WUHU216HW,2013-02-10 21:18:00,
2013-02-10 14:20:00,27.7,15.2,29.87,NW,315,20.6,24.8,59,0.00,,,0.00,WUHU216HW,2013-02-10 21:20:00,
2013-02-10 14:21:00,27.7,15.2,29.87,NNW,338,17.0,24.8,59,0.00,,,0.00,WUHU216HW,2013-02-10 21:21:00,
2013-02-10 14:24:00,27.7,15.2,29.87,NNW,338,15.9,24.8,59,0.00,,,0.00,WUHU216HW,2013-02-10 21:24:00,
2013-02-10 14:25:00,27.9,15.8,29.87,NNW,338,18.1,24.8,60,0.00,,,0.00,WUHU216HW,2013-02-10 21:25:00,
2013-02-10 14:26:00,27.9,15.4,29.87,NNW,338,23.0,24.8,59,0.00,,,0.00,WUHU216HW,2013-02-10 21:26:00,
2013-02-10 14:30:00,27.9,15.4,29.87,NW,315,24.8,24.8,59,0.00,,,0.00,WUHU216HW,2013-02-10 21:30:00,
2013-02-10 14:31:00,28.1,16.0,29.87,NW,315,18.1,24.8,60,0.00,,,0.00,WUHU216HW,2013-02-10 21:31:00,
2013-02-10 14:35:00,27.7,15.2,29.87,NW,315,19.0,25.1,59,0.00,,,0.00,WUHU216HW,2013-02-10 21:35:00,
2013-02-10 14:36:00,27.7,15.2,29.87,NNW,338,16.6,25.1,59,0.00,,,0.00,WUHU216HW,2013-02-10 21:36:00,
2013-02-10 14:40:00,26.6,14.9,29.88,NNW,338,20.6,25.1,61,0.00,,,0.00,WUHU216HW,2013-02-10 21:40:00,
2013-02-10 14:41:00,26.5,14.8,29.88,NNW,338,15.7,25.1,61,0.00,,,0.00,WUHU216HW,2013-02-10 21:41:00,
2013-02-10 14:45:00,26.3,14.6,29.88,NNW,338,20.1,23.5,61,0.00,,,0.00,WUHU216HW,2013-02-10 21:45:00,
2013-02-10 14:46:00,26.5,15.1,29.87,NNW,338,20.6,23.5,62,0.00,,,0.00,WUHU216HW,2013-02-10 21:46:00,
2013-02-10 14:50:00,26.6,15.3,29.88,NNW,338,19.5,24.2,62,0.00,,,0.00,WUHU216HW,2013-02-10 21:50:00,
2013-02-10 14:51:00,26.6,14.9,29.88,NNW,338,20.1,24.2,61,0.00,,,0.00,WUHU216HW,2013-02-10 21:51:00,
2013-02-10 14:55:00,26.3,14.2,29.88,NNW,338,23.5,24.2,60,0.00,,,0.00,WUHU216HW,2013-02-10 21:55:00,
2013-02-10 14:56:00,26.3,14.2,29.88,NW,315,21.3,24.2,60,0.00,,,0.00,WUHU216HW,2013-02-10 21:56:00,
2013-02-10 15:00:00,26.3,14.9,29.88,NNW,338,17.7,23.5,62,0.00,,,0.00,WUHU216HW,2013-02-10 22:00:00,
2013-02-10 15:01:00,26.3,14.6,29.88,NNW,338,22.8,23.5,61,0.00,,,0.00,WUHU216HW,2013-02-10 22:01:00,
2013-02-10 15:05:00,25.9,14.0,29.87,NNW,338,20.6,23.5,60,0.00,,,0.00,WUHU216HW,2013-02-10 22:05:00,
2013-02-10 15:06:00,25.9,14.0,29.87,NNW,338,16.6,23.5,60,0.00,,,0.00,WUHU216HW,2013-02-10 22:06:00,
2013-02-10 15:07:00,26.1,14.1,29.88,NNW,338,25.1,25.1,60,0.00,,,0.00,WUHU216HW,2013-02-10 22:07:00,
2013-02-10 15:10:00,26.1,14.5,29.88,NNW,338,17.0,25.1,61,0.00,,,0.00,WUHU216HW,2013-02-10 22:10:00,
2013-02-10 15:11:00,26.1,14.5,29.88,NNW,338,17.4,25.1,61,0.00,,,0.00,WUHU216HW,2013-02-10 22:11:00,
2013-02-10 15:12:00,26.1,14.5,29.88,NNW,338,19.2,25.1,61,0.00,,,0.00,WUHU216HW,2013-02-10 22:12:00,
2013-02-10 15:16:00,26.1,14.5,29.88,NNW,338,19.7,25.1,61,0.00,,,0.00,WUHU216HW,2013-02-10 22:16:00,
2013-02-10 15:17:00,26.1,14.5,29.88,NNW,338,17.0,23.5,61,0.00,,,0.00,WUHU216HW,2013-02-10 22:17:00,
2013-02-10 15:21:00,25.7,14.1,29.89,NNW,338,18.6,21.3,61,0.00,,,0.00,WUHU216HW,2013-02-10 22:21:00,
2013-02-10 15:22:00,25.7,14.1,29.89,NNW,338,18.6,21.3,61,0.00,,,0.00,WUHU216HW,2013-02-10 22:22:00,
2013-02-10 15:23:00,25.9,14.3,29.89,NNW,338,16.3,21.3,61,0.00,,,0.00,WUHU216HW,2013-02-10 22:23:00,
2013-02-10 15:26:00,25.9,14.3,29.89,NNW,338,21.0,21.0,61,0.00,,,0.00,WUHU216HW,2013-02-10 22:26:00,
2013-02-10 15:27:00,25.9,14.3,29.89,NNW,338,21.0,21.0,61,0.00,,,0.00,WUHU216HW,2013-02-10 22:27:00,
2013-02-10 15:28:00,25.9,14.3,29.89,NNW,338,19.9,21.0,61,0.00,,,0.00,WUHU216HW,2013-02-10 22:28:00,
2013-02-10 15:31:00,26.3,14.6,29.89,NW,315,17.9,21.0,61,0.00,,,0.00,WUHU216HW,2013-02-10 22:31:00,
2013-02-10 15:32:00,26.3,14.6,29.89,NW,315,17.9,21.0,61,0.00,,,0.00,WUHU216HW,2013-02-10 22:32:00,
2013-02-10 15:34:00,26.5,15.1,29.89,NW,315,14.8,21.0,62,0.00,,,0.00,WUHU216HW,2013-02-10 22:34:00,
2013-02-10 15:36:00,26.6,14.9,29.89,NNW,338,14.1,21.3,61,0.00,,,0.00,WUHU216HW,2013-02-10 22:36:00,
2013-02-10 15:37:00,26.6,14.9,29.89,NNW,338,14.1,21.3,61,0.00,,,0.00,WUHU216HW,2013-02-10 22:37:00,
2013-02-10 15:39:00,26.6,15.3,29.89,NW,315,14.3,21.3,62,0.00,,,0.00,WUHU216HW,2013-02-10 22:39:00,
2013-02-10 15:42:00,27.0,14.9,29.89,NNW,338,16.3,21.3,60,0.00,,,0.00,WUHU216HW,2013-02-10 22:42:00,
2013-02-10 15:44:00,26.8,14.3,29.89,NNW,338,17.7,21.3,59,0.00,,,0.00,WUHU216HW,2013-02-10 22:44:00,
2013-02-10 15:47:00,26.3,13.9,29.89,NW,315,17.4,20.8,59,0.00,,,0.00,WUHU216HW,2013-02-10 22:47:00,
2013-02-10 15:48:00,26.3,13.9,29.89,NW,315,16.8,20.8,59,0.00,,,0.00,WUHU216HW,2013-02-10 22:48:00,
2013-02-10 15:49:00,25.9,13.5,29.89,NW,315,21.7,21.7,59,0.00,,,0.00,WUHU216HW,2013-02-10 22:49:00,
2013-02-10 15:52:00,25.7,13.3,29.89,NW,315,14.3,21.7,59,0.00,,,0.00,WUHU216HW,2013-02-10 22:52:00,
2013-02-10 15:53:00,25.9,13.5,29.89,NNW,338,17.9,21.7,59,0.00,,,0.00,WUHU216HW,2013-02-10 22:53:00,
2013-02-10 15:54:00,26.1,13.7,29.89,NW,315,15.9,21.7,59,0.00,,,0.00,WUHU216HW,2013-02-10 22:54:00,
2013-02-10 15:57:00,25.9,13.5,29.89,NNW,338,17.7,21.7,59,0.00,,,0.00,WUHU216HW,2013-02-10 22:57:00,
2013-02-10 15:58:00,25.9,13.5,29.89,NNW,338,15.9,21.7,59,0.00,,,0.00,WUHU216HW,2013-02-10 22:58:00,
2013-02-10 16:00:00,26.1,13.7,29.89,NNW,338,15.2,20.1,59,0.00,,,0.00,WUHU216HW,2013-02-10 23:00:00,
2013-02-10 16:02:00,26.5,14.4,29.89,NW,315,13.9,20.1,60,0.00,,,0.00,WUHU216HW,2013-02-10 23:02:00,
2013-02-10 16:03:00,26.5,14.4,29.89,NW,315,13.0,20.1,60,0.00,,,0.00,WUHU216HW,2013-02-10 23:03:00,
2013-02-10 16:05:00,26.6,14.1,29.89,NNW,338,13.6,19.5,59,0.00,,,0.00,WUHU216HW,2013-02-10 23:05:00,
2013-02-10 16:07:00,26.8,14.0,29.89,NNW,338,18.1,18.1,58,0.00,,,0.00,WUHU216HW,2013-02-10 23:07:00,
2013-02-10 16:08:00,26.5,13.1,29.89,NNW,338,16.8,18.1,57,0.00,,,0.00,WUHU216HW,2013-02-10 23:08:00,
2013-02-10 16:10:00,25.9,13.2,29.89,NNW,338,14.1,18.3,58,0.00,,,0.00,WUHU216HW,2013-02-10 23:10:00,
2013-02-10 16:12:00,25.9,13.5,29.89,NNW,338,13.4,18.3,59,0.00,,,0.00,WUHU216HW,2013-02-10 23:12:00,
2013-02-10 16:13:00,26.1,13.7,29.89,NNW,338,19.0,19.0,59,0.00,,,0.00,WUHU216HW,2013-02-10 23:13:00,
2013-02-10 16:15:00,26.5,14.4,29.89,NW,315,10.1,19.5,60,0.00,,,0.00,WUHU216HW,2013-02-10 23:15:00,
2013-02-10 16:17:00,26.8,14.0,29.89,NNW,338,18.3,19.5,58,0.00,,,0.00,WUHU216HW,2013-02-10 23:17:00,
2013-02-10 16:18:00,26.8,14.0,29.89,NNW,338,11.2,19.5,58,0.00,,,0.00,WUHU216HW,2013-02-10 23:18:00,
2013-02-10 16:20:00,27.0,14.5,29.89,NNW,338,15.0,19.5,59,0.00,,,0.00,WUHU216HW,2013-02-10 23:20:00,
2013-02-10 16:22:00,26.8,14.3,29.89,NW,315,12.1,19.5,59,0.00,,,0.00,WUHU216HW,2013-02-10 23:22:00,
2013-02-10 16:23:00,26.8,14.3,29.89,NNW,338,15.2,19.5,59,0.00,,,0.00,WUHU216HW,2013-02-10 23:23:00,
2013-02-10 16:25:00,27.0,14.1,29.89,NW,315,15.7,19.0,58,0.00,,,0.00,WUHU216HW,2013-02-10 23:25:00,
2013-02-10 16:28:00,27.0,13.7,29.89,NW,315,12.1,17.9,57,0.00,,,0.00,WUHU216HW,2013-02-10 23:28:00,
2013-02-10 16:29:00,27.0,13.7,29.89,NW,315,14.8,17.9,57,0.00,,,0.00,WUHU216HW,2013-02-10 23:29:00,
2013-02-10 16:30:00,27.0,12.9,29.89,NNW,338,22.6,22.6,55,0.00,,,0.00,WUHU216HW,2013-02-10 23:30:00,
2013-02-10 16:33:00,26.6,13.0,29.89,NW,315,18.6,22.6,56,0.00,,,0.00,WUHU216HW,2013-02-10 23:33:00,
2013-02-10 16:34:00,26.6,13.0,29.89,NNW,338,14.3,22.6,56,0.00,,,0.00,WUHU216HW,2013-02-10 23:34:00,
2013-02-10 16:35:00,26.3,12.6,29.89,NNW,338,12.1,22.6,56,0.00,,,0.00,WUHU216HW,2013-02-10 23:35:00,
2013-02-10 16:38:00,25.9,12.7,29.89,NW,315,15.0,22.6,57,0.00,,,0.00,WUHU216HW,2013-02-10 23:38:00,
2013-02-10 16:39:00,25.9,13.2,29.89,NNW,338,16.8,22.6,58,0.00,,,0.00,WUHU216HW,2013-02-10 23:39:00,
2013-02-10 16:41:00,26.1,13.2,29.89,NW,315,13.4,20.1,58,0.00,,,0.00,WUHU216HW,2013-02-10 23:41:00,
2013-02-10 16:43:00,26.3,13.4,29.89,NW,315,11.9,20.1,58,0.00,,,0.00,WUHU216HW,2013-02-10 23:43:00,
2013-02-10 16:44:00,26.3,13.4,29.89,NNW,338,14.3,20.1,58,0.00,,,0.00,WUHU216HW,2013-02-10 23:44:00,
2013-02-10 16:46:00,26.6,13.8,29.89,NW,315,11.2,17.9,58,0.00,,,0.00,WUHU216HW,2013-02-10 23:46:00,
2013-02-10 16:48:00,26.8,13.5,29.89,NW,315,10.5,16.8,57,0.00,,,0.00,WUHU216HW,2013-02-10 23:48:00,
2013-02-10 16:49:00,26.8,13.5,29.89,NW,315,10.5,15.7,57,0.00,,,0.00,WUHU216HW,2013-02-10 23:49:00,
2013-02-10 16:51:00,26.6,13.0,29.89,NNW,338,13.4,15.7,56,0.00,,,0.00,WUHU216HW,2013-02-10 23:51:00,
2013-02-10 16:53:00,26.6,13.3,29.89,NNW,338,12.8,14.3,57,0.00,,,0.00,WUHU216HW,2013-02-10 23:53:00,
2013-02-10 16:54:00,26.5,13.1,29.89,NW,315,16.1,16.1,57,0.00,,,0.00,WUHU216HW,2013-02-10 23:54:00,
2013-02-10 16:56:00,26.5,13.1,29.89,NNW,338,11.4,17.9,57,0.00,,,0.00,WUHU216HW,2013-02-10 23:56:00,
2013-02-10 16:58:00,26.3,13.1,29.89,NNW,338,13.9,17.9,57,0.00,,,0.00,WUHU216HW,2013-02-10 23:58:00,
2013-02-10 16:59:00,26.3,13.4,29.89,NNW,338,11.9,17.9,58,0.00,,,0.00,WUHU216HW,2013-02-10 23:59:00,
2013-02-10 17:01:00,26.3,13.4,29.89,NNW,338,12.3,17.9,58,0.00,,,0.00,WUHU216HW,2013-02-11 00:01:00,
2013-02-10 17:03:00,25.7,13.3,29.89,NW,315,13.0,17.9,59,0.00,,,0.00,WUHU216HW,2013-02-11 00:03:00,
2013-02-10 17:04:00,25.6,13.2,29.89,NW,315,10.3,17.9,59,0.00,,,0.00,WUHU216HW,2013-02-11 00:04:00,
2013-02-10 17:05:00,25.4,13.1,29.89,NNW,338,11.2,17.2,59,0.00,,,0.00,WUHU216HW,2013-02-11 00:05:00,
2013-02-10 17:06:00,25.0,12.7,29.89,NW,315,9.2,17.2,59,0.00,,,0.00,WUHU216HW,2013-02-11 00:06:00,
2013-02-10 17:08:00,24.5,12.6,29.89,NW,315,12.1,16.3,60,0.00,,,0.00,WUHU216HW,2013-02-11 00:08:00,
2013-02-10 17:09:00,24.3,12.4,29.89,North,0,11.0,16.3,60,0.00,,,0.00,WUHU216HW,2013-02-11 00:09:00,
2013-02-10 17:10:00,24.1,12.2,29.89,NW,315,9.2,16.3,60,0.00,,,0.00,WUHU216HW,2013-02-11 00:10:00,
2013-02-10 17:11:00,24.1,12.6,29.89,NW,315,9.2,16.3,61,0.00,,,0.00,WUHU216HW,2013-02-11 00:11:00,
2013-02-10 17:14:00,23.9,12.4,29.89,WNW,293,7.6,12.3,61,0.00,,,0.00,WUHU216HW,2013-02-11 00:14:00,
2013-02-10 17:15:00,23.8,12.3,29.89,NW,315,8.5,12.1,61,0.00,,,0.00,WUHU216HW,2013-02-11 00:15:00,
2013-02-10 17:17:00,23.8,12.3,29.89,NW,315,10.7,12.1,61,0.00,,,0.00,WUHU216HW,2013-02-11 00:17:00,
2013-02-10 17:19:00,23.6,12.1,29.89,NW,315,9.8,11.9,61,0.00,,,0.00,WUHU216HW,2013-02-11 00:19:00,
2013-02-10 17:21:00,23.6,12.1,29.89,NNW,338,8.7,12.5,61,0.00,,,0.00,WUHU216HW,2013-02-11 00:21:00,
2013-02-10 17:22:00,23.6,12.1,29.89,NW,315,8.9,12.5,61,0.00,,,0.00,WUHU216HW,2013-02-11 00:22:00,
2013-02-10 17:24:00,23.4,11.9,29.89,NW,315,9.8,12.8,61,0.00,,,0.00,WUHU216HW,2013-02-11 00:24:00,
2013-02-10 17:26:00,23.4,11.9,29.89,NW,315,10.7,12.8,61,0.00,,,0.00,WUHU216HW,2013-02-11 00:26:00,
2013-02-10 17:27:00,23.4,11.9,29.89,NW,315,10.1,12.8,61,0.00,,,0.00,WUHU216HW,2013-02-11 00:27:00,
2013-02-10 17:29:00,23.4,11.9,29.89,NW,315,12.3,12.8,61,0.00,,,0.00,WUHU216HW,2013-02-11 00:29:00,
2013-02-10 17:31:00,23.4,11.9,29.89,NW,315,12.1,12.8,61,0.00,,,0.00,WUHU216HW,2013-02-11 00:31:00,
2013-02-10 17:33:00,23.4,11.9,29.89,WNW,293,9.2,13.4,61,0.00,,,0.00,WUHU216HW,2013-02-11 00:33:00,
2013-02-10 17:34:00,23.4,11.9,29.89,NW,315,10.7,14.1,61,0.00,,,0.00,WUHU216HW,2013-02-11 00:34:00,
2013-02-10 17:35:00,23.4,11.9,29.89,NW,315,11.6,14.1,61,0.00,,,0.00,WUHU216HW,2013-02-11 00:35:00,
2013-02-10 17:37:00,23.4,11.9,29.89,NW,315,14.5,17.0,61,0.00,,,0.00,WUHU216HW,2013-02-11 00:37:00,
2013-02-10 17:38:00,23.4,11.9,29.89,NW,315,8.9,17.0,61,0.00,,,0.00,WUHU216HW,2013-02-11 00:38:00,
2013-02-10 17:39:00,23.4,11.9,29.89,NNW,338,14.3,17.0,61,0.00,,,0.00,WUHU216HW,2013-02-11 00:39:00,
2013-02-10 17:40:00,23.4,11.9,29.89,NW,315,12.8,17.0,61,0.00,,,0.00,WUHU216HW,2013-02-11 00:40:00,
2013-02-10 17:42:00,23.4,11.9,29.89,NNW,338,15.0,18.3,61,0.00,,,0.00,WUHU216HW,2013-02-11 00:42:00,
2013-02-10 17:43:00,23.4,11.9,29.89,NW,315,15.7,18.3,61,0.00,,,0.00,WUHU216HW,2013-02-11 00:43:00,
2013-02-10 17:44:00,23.4,11.9,29.89,NW,315,12.3,18.3,61,0.00,,,0.00,WUHU216HW,2013-02-11 00:44:00,
2013-02-10 17:45:00,23.4,11.9,29.89,NW,315,13.4,18.3,61,0.00,,,0.00,WUHU216HW,2013-02-11 00:45:00,
2013-02-10 17:47:00,23.4,11.9,29.89,NW,315,11.4,18.3,61,0.00,,,0.00,WUHU216HW,2013-02-11 00:47:00,
2013-02-10 17:48:00,23.4,11.9,29.89,WNW,293,9.4,18.3,61,0.00,,,0.00,WUHU216HW,2013-02-11 00:48:00,
2013-02-10 17:49:00,23.2,12.1,29.89,NW,315,9.4,18.3,62,0.00,,,0.00,WUHU216HW,2013-02-11 00:49:00,
2013-02-10 17:50:00,23.2,12.1,29.89,NW,315,8.3,18.3,62,0.00,,,0.00,WUHU216HW,2013-02-11 00:50:00,
2013-02-10 17:52:00,23.0,11.9,29.89,NNW,338,12.5,15.7,62,0.00,,,0.00,WUHU216HW,2013-02-11 00:52:00,
2013-02-10 17:53:00,23.0,11.5,29.89,NW,315,13.4,15.0,61,0.00,,,0.00,WUHU216HW,2013-02-11 00:53:00,
2013-02-10 17:55:00,23.0,11.5,29.89,WNW,293,7.2,13.4,61,0.00,,,0.00,WUHU216HW,2013-02-11 00:55:00,
2013-02-10 17:57:00,22.7,11.9,29.89,WNW,293,7.6,13.4,63,0.00,,,0.00,WUHU216HW,2013-02-11 00:57:00,
2013-02-10 17:59:00,22.3,11.6,29.89,WNW,293,7.2,13.4,63,0.00,,,0.00,WUHU216HW,2013-02-11 00:59:00,
2013-02-10 18:00:00,22.3,11.9,29.89,WNW,293,6.9,13.4,64,0.00,,,0.00,WUHU216HW,2013-02-11 01:00:00,
2013-02-10 18:02:00,22.0,11.6,29.89,NW,315,5.6,13.4,64,0.00,,,0.00,WUHU216HW,2013-02-11 01:02:00,
2013-02-10 18:04:00,22.0,12.0,29.89,WNW,293,7.6,8.3,65,0.00,,,0.00,WUHU216HW,2013-02-11 01:04:00,
2013-02-10 18:05:00,22.0,12.0,29.89,WNW,293,7.4,8.3,65,0.00,,,0.00,WUHU216HW,2013-02-11 01:05:00,
2013-02-10 18:08:00,22.0,12.0,29.89,WNW,293,6.9,7.6,65,0.00,,,0.00,WUHU216HW,2013-02-11 01:08:00,
2013-02-10 18:09:00,22.0,12.0,29.89,WNW,293,7.6,7.8,65,0.00,,,0.00,WUHU216HW,2013-02-11 01:09:00,
2013-02-10 18:10:00,22.0,12.0,29.89,WNW,293,7.6,7.8,65,0.00,,,0.00,WUHU216HW,2013-02-11 01:10:00,
2013-02-10 18:13:00,22.1,12.1,29.90,WNW,293,6.9,7.8,65,0.00,,,0.00,WUHU216HW,2013-02-11 01:13:00,
2013-02-10 18:15:00,22.1,12.1,29.89,WNW,293,4.9,7.8,65,0.00,,,0.00,WUHU216HW,2013-02-11 01:15:00,
2013-02-10 18:18:00,22.0,12.0,29.89,WNW,293,6.3,7.8,65,0.00,,,0.00,WUHU216HW,2013-02-11 01:18:00,
2013-02-10 18:20:00,22.0,12.0,29.89,WNW,293,5.6,7.8,65,0.00,,,0.00,WUHU216HW,2013-02-11 01:20:00,
2013-02-10 18:21:00,21.8,11.8,29.89,WNW,293,6.9,6.9,65,0.00,,,0.00,WUHU216HW,2013-02-11 01:21:00,
2013-02-10 18:23:00,21.8,11.8,29.89,WNW,293,6.3,7.4,65,0.00,,,0.00,WUHU216HW,2013-02-11 01:23:00,
2013-02-10 18:25:00,22.0,12.0,29.89,WNW,293,6.9,8.5,65,0.00,,,0.00,WUHU216HW,2013-02-11 01:25:00,
2013-02-10 18:26:00,22.0,12.0,29.89,WNW,293,6.9,8.5,65,0.00,,,0.00,WUHU216HW,2013-02-11 01:26:00,
2013-02-10 18:28:00,21.8,11.8,29.89,NW,315,7.6,8.5,65,0.00,,,0.00,WUHU216HW,2013-02-11 01:28:00,
2013-02-10 18:30:00,21.8,11.8,29.89,WNW,293,6.9,8.5,65,0.00,,,0.00,WUHU216HW,2013-02-11 01:30:00,
2013-02-10 18:31:00,21.6,11.6,29.89,WNW,293,7.2,8.5,65,0.00,,,0.00,WUHU216HW,2013-02-11 01:31:00,
2013-02-10 18:33:00,21.8,11.8,29.89,WNW,293,6.9,8.5,65,0.00,,,0.00,WUHU216HW,2013-02-11 01:33:00,
2013-02-10 18:35:00,22.0,12.0,29.89,WNW,293,5.6,7.8,65,0.00,,,0.00,WUHU216HW,2013-02-11 01:35:00,
2013-02-10 18:36:00,22.0,12.0,29.89,WNW,293,8.5,8.5,65,0.00,,,0.00,WUHU216HW,2013-02-11 01:36:00,
2013-02-10 18:39:00,22.0,11.6,29.89,WNW,293,9.2,9.4,64,0.00,,,0.00,WUHU216HW,2013-02-11 01:39:00,
2013-02-10 18:40:00,22.0,11.6,29.89,West,270,7.4,10.5,64,0.00,,,0.00,WUHU216HW,2013-02-11 01:40:00,
2013-02-10 18:42:00,22.0,11.6,29.89,West,270,6.9,10.5,64,0.00,,,0.00,WUHU216HW,2013-02-11 01:42:00,
2013-02-10 18:44:00,22.1,11.8,29.90,WNW,293,6.3,10.5,64,0.00,,,0.00,WUHU216HW,2013-02-11 01:44:00,
2013-02-10 18:45:00,22.1,11.8,29.90,WNW,293,6.9,10.5,64,0.00,,,0.00,WUHU216HW,2013-02-11 01:45:00,
2013-02-10 18:46:00,22.1,11.8,29.90,WNW,293,6.9,10.5,64,0.00,,,0.00,WUHU216HW,2013-02-11 01:46:00,
2013-02-10 18:47:00,22.0,11.3,29.90,NW,315,7.2,10.5,63,0.00,,,0.00,WUHU216HW,2013-02-11 01:47:00,
2013-02-10 18:49:00,22.0,11.3,29.90,WNW,293,4.5,10.5,63,0.00,,,0.00,WUHU216HW,2013-02-11 01:49:00,
2013-02-10 18:50:00,22.0,11.6,29.90,WNW,293,5.8,8.5,64,0.00,,,0.00,WUHU216HW,2013-02-11 01:50:00,
2013-02-10 18:51:00,21.8,11.4,29.90,NW,315,5.8,8.5,64,0.00,,,0.00,WUHU216HW,2013-02-11 01:51:00,
2013-02-10 18:52:00,21.8,11.4,29.90,WNW,293,6.5,8.5,64,0.00,,,0.00,WUHU216HW,2013-02-11 01:52:00,
2013-02-10 18:54:00,21.6,11.3,29.90,NW,315,5.4,7.4,64,0.00,,,0.00,WUHU216HW,2013-02-11 01:54:00,
2013-02-10 18:55:00,21.6,11.3,29.90,WNW,293,4.3,7.4,64,0.00,,,0.00,WUHU216HW,2013-02-11 01:55:00,
2013-02-10 18:56:00,21.6,11.3,29.90,WNW,293,4.5,7.4,64,0.00,,,0.00,WUHU216HW,2013-02-11 01:56:00,
2013-02-10 18:57:00,21.4,11.1,29.90,West,270,4.9,6.7,64,0.00,,,0.00,WUHU216HW,2013-02-11 01:57:00,
2013-02-10 18:59:00,21.4,11.4,29.90,WNW,293,5.4,6.7,65,0.00,,,0.00,WUHU216HW,2013-02-11 01:59:00,
2013-02-10 19:00:00,21.4,11.4,29.90,West,270,4.9,6.7,65,0.00,,,0.00,WUHU216HW,2013-02-11 02:00:00,
2013-02-10 19:01:00,21.4,11.4,29.90,West,270,5.8,6.7,65,0.00,,,0.00,WUHU216HW,2013-02-11 02:01:00,
2013-02-10 19:02:00,21.4,11.4,29.90,West,270,5.4,6.7,65,0.00,,,0.00,WUHU216HW,2013-02-11 02:02:00,
2013-02-10 19:05:00,21.2,11.3,29.90,WNW,293,6.7,8.9,65,0.00,,,0.00,WUHU216HW,2013-02-11 02:05:00,
2013-02-10 19:06:00,21.2,11.3,29.90,West,270,8.9,8.9,65,0.00,,,0.00,WUHU216HW,2013-02-11 02:06:00,
2013-02-10 19:08:00,21.1,11.1,29.90,West,270,8.1,8.9,65,0.00,,,0.00,WUHU216HW,2013-02-11 02:08:00,
2013-02-10 19:10:00,20.9,10.9,29.90,WNW,293,7.6,8.9,65,0.00,,,0.00,WUHU216HW,2013-02-11 02:10:00,
2013-02-10 19:11:00,20.9,10.9,29.90,WNW,293,6.3,8.9,65,0.00,,,0.00,WUHU216HW,2013-02-11 02:11:00,
2013-02-10 19:13:00,20.7,10.7,29.90,West,270,6.9,8.9,65,0.00,,,0.00,WUHU216HW,2013-02-11 02:13:00,
2013-02-10 19:15:00,20.5,10.5,29.90,West,270,8.5,9.2,65,0.00,,,0.00,WUHU216HW,2013-02-11 02:15:00,
2013-02-10 19:16:00,20.3,10.4,29.90,West,270,9.2,9.2,65,0.00,,,0.00,WUHU216HW,2013-02-11 02:16:00,
2013-02-10 19:18:00,20.3,10.4,29.90,West,270,8.9,9.2,65,0.00,,,0.00,WUHU216HW,2013-02-11 02:18:00,
2013-02-10 19:20:00,20.3,10.4,29.90,WNW,293,8.9,10.5,65,0.00,,,0.00,WUHU216HW,2013-02-11 02:20:00,
2013-02-10 19:21:00,20.3,10.4,29.90,West,270,7.6,10.5,65,0.00,,,0.00,WUHU216HW,2013-02-11 02:21:00,
2013-02-10 19:23:00,20.3,10.4,29.90,West,270,8.1,10.5,65,0.00,,,0.00,WUHU216HW,2013-02-11 02:23:00,
2013-02-10 19:25:00,20.0,10.0,29.90,West,270,8.9,10.5,65,0.00,,,0.00,WUHU216HW,2013-02-11 02:25:00,
2013-02-10 19:26:00,19.8,9.8,29.90,West,270,7.8,10.5,65,0.00,,,0.00,WUHU216HW,2013-02-11 02:26:00,
2013-02-10 19:28:00,19.8,10.2,29.90,West,270,8.9,10.5,66,0.00,,,0.00,WUHU216HW,2013-02-11 02:28:00,
2013-02-10 19:30:00,19.6,10.0,29.90,West,270,6.9,9.8,66,0.00,,,0.00,WUHU216HW,2013-02-11 02:30:00,
2013-02-10 19:31:00,19.6,10.0,29.90,West,270,8.3,9.8,66,0.00,,,0.00,WUHU216HW,2013-02-11 02:31:00,
2013-02-10 19:33:00,19.4,9.8,29.90,West,270,7.6,9.8,66,0.00,,,0.00,WUHU216HW,2013-02-11 02:33:00,
2013-02-10 19:35:00,19.3,9.6,29.90,West,270,8.5,9.2,66,0.00,,,0.00,WUHU216HW,2013-02-11 02:35:00,
2013-02-10 19:37:00,19.1,9.5,29.90,WNW,293,6.5,8.9,66,0.00,,,0.00,WUHU216HW,2013-02-11 02:37:00,
2013-02-10 19:38:00,19.1,9.5,29.90,West,270,6.9,8.9,66,0.00,,,0.00,WUHU216HW,2013-02-11 02:38:00,
2013-02-10 19:41:00,19.1,9.5,29.90,West,270,8.1,9.6,66,0.00,,,0.00,WUHU216HW,2013-02-11 02:41:00,
2013-02-10 19:42:00,19.1,9.5,29.90,West,270,6.9,9.6,66,0.00,,,0.00,WUHU216HW,2013-02-11 02:42:00,
2013-02-10 19:43:00,18.9,9.6,29.90,West,270,8.1,9.6,67,0.00,,,0.00,WUHU216HW,2013-02-11 02:43:00,
2013-02-10 19:46:00,18.7,9.5,29.90,WSW,248,7.6,9.6,67,0.00,,,0.00,WUHU216HW,2013-02-11 02:46:00,
2013-02-10 19:47:00,18.7,9.5,29.90,West,270,8.5,9.6,67,0.00,,,0.00,WUHU216HW,2013-02-11 02:47:00,
2013-02-10 19:49:00,18.9,9.6,29.90,West,270,7.8,9.6,67,0.00,,,0.00,WUHU216HW,2013-02-11 02:49:00,
2013-02-10 19:51:00,18.9,9.6,29.90,WSW,248,8.5,9.6,67,0.00,,,0.00,WUHU216HW,2013-02-11 02:51:00,
2013-02-10 19:52:00,18.9,9.6,29.90,West,270,8.3,9.6,67,0.00,,,0.00,WUHU216HW,2013-02-11 02:52:00,
2013-02-10 19:53:00,18.9,9.6,29.90,West,270,8.5,9.6,67,0.00,,,0.00,WUHU216HW,2013-02-11 02:53:00,
2013-02-10 19:54:00,18.9,9.6,29.90,West,270,6.9,9.6,67,0.00,,,0.00,WUHU216HW,2013-02-11 02:54:00,
2013-02-10 19:56:00,18.7,9.5,29.90,NW,315,5.8,9.6,67,0.00,,,0.00,WUHU216HW,2013-02-11 02:56:00,
2013-02-10 19:57:00,18.7,9.5,29.90,NW,315,4.5,9.6,67,0.00,,,0.00,WUHU216HW,2013-02-11 02:57:00,
2013-02-10 19:58:00,18.7,9.5,29.90,NNW,338,4.3,9.6,67,0.00,,,0.00,WUHU216HW,2013-02-11 02:58:00,
2013-02-10 19:59:00,18.5,9.4,29.90,NW,315,5.4,9.6,67,0.00,,,0.00,WUHU216HW,2013-02-11 02:59:00,
2013-02-10 20:02:00,18.5,9.4,29.90,West,270,9.6,9.6,67,0.00,,,0.00,WUHU216HW,2013-02-11 03:02:00,
2013-02-10 20:03:00,18.5,9.4,29.90,WNW,293,5.1,9.6,67,0.00,,,0.00,WUHU216HW,2013-02-11 03:03:00,
2013-02-10 20:04:00,18.4,9.2,29.90,WNW,293,6.5,9.6,67,0.00,,,0.00,WUHU216HW,2013-02-11 03:04:00,
2013-02-10 20:07:00,18.4,9.6,29.90,West,270,7.4,9.6,68,0.00,,,0.00,WUHU216HW,2013-02-11 03:07:00,
2013-02-10 20:08:00,18.4,9.6,29.90,WSW,248,6.9,9.6,68,0.00,,,0.00,WUHU216HW,2013-02-11 03:08:00,
2013-02-10 20:09:00,18.5,9.6,29.90,WNW,293,7.8,9.6,68,0.00,,,0.00,WUHU216HW,2013-02-11 03:09:00,
2013-02-10 20:12:00,18.7,9.5,29.90,West,270,9.2,9.2,67,0.00,,,0.00,WUHU216HW,2013-02-11 03:12:00,
2013-02-10 20:13:00,18.7,9.5,29.90,West,270,6.9,9.2,67,0.00,,,0.00,WUHU216HW,2013-02-11 03:13:00,
2013-02-10 20:14:00,18.7,9.8,29.90,West,270,8.5,9.2,68,0.00,,,0.00,WUHU216HW,2013-02-11 03:14:00,
2013-02-10 20:18:00,18.7,9.5,29.90,West,270,7.4,10.3,67,0.00,,,0.00,WUHU216HW,2013-02-11 03:18:00,
2013-02-10 20:19:00,18.7,9.5,29.90,West,270,6.5,10.3,67,0.00,,,0.00,WUHU216HW,2013-02-11 03:19:00,
2013-02-10 20:23:00,18.4,9.2,29.90,WSW,248,7.2,10.3,67,0.00,,,0.00,WUHU216HW,2013-02-11 03:23:00,
2013-02-10 20:24:00,18.4,9.2,29.90,West,270,6.5,10.3,67,0.00,,,0.00,WUHU216HW,2013-02-11 03:24:00,
2013-02-10 20:28:00,18.0,8.8,29.90,SW,225,5.8,7.8,67,0.00,,,0.00,WUHU216HW,2013-02-11 03:28:00,
2013-02-10 20:29:00,18.0,8.8,29.90,SW,225,9.2,9.2,67,0.00,,,0.00,WUHU216HW,2013-02-11 03:29:00,
2013-02-10 20:33:00,18.0,9.2,29.90,WSW,248,5.6,10.7,68,0.00,,,0.00,WUHU216HW,2013-02-11 03:33:00,
2013-02-10 20:34:00,18.0,9.6,29.90,WSW,248,4.5,10.7,69,0.00,,,0.00,WUHU216HW,2013-02-11 03:34:00,
2013-02-10 20:38:00,18.4,9.8,29.90,SSW,203,4.7,10.7,69,0.00,,,0.00,WUHU216HW,2013-02-11 03:38:00,
2013-02-10 20:39:00,18.4,9.8,29.90,SSW,203,4.7,10.7,69,0.00,,,0.00,WUHU216HW,2013-02-11 03:39:00,
2013-02-10 20:40:00,18.4,9.8,29.91,SSW,203,4.3,10.7,69,0.00,,,0.00,WUHU216HW,2013-02-11 03:40:00,
2013-02-10 20:44:00,18.5,10.0,29.90,SSW,203,2.5,6.5,69,0.00,,,0.00,WUHU216HW,2013-02-11 03:44:00,
2013-02-10 20:45:00,18.5,10.0,29.90,SSE,158,1.6,4.9,69,0.00,,,0.00,WUHU216HW,2013-02-11 03:45:00,
2013-02-10 20:49:00,18.5,10.0,29.90,SW,225,4.5,4.7,69,0.00,,,0.00,WUHU216HW,2013-02-11 03:49:00,
2013-02-10 20:50:00,18.5,10.0,29.90,SW,225,4.7,4.7,69,0.00,,,0.00,WUHU216HW,2013-02-11 03:50:00,
2013-02-10 20:54:00,18.2,9.7,29.90,WSW,248,4.0,5.4,69,0.00,,,0.00,WUHU216HW,2013-02-11 03:54:00,
2013-02-10 20:55:00,18.0,9.6,29.90,SW,225,4.3,5.4,69,0.00,,,0.00,WUHU216HW,2013-02-11 03:55:00,
2013-02-10 20:59:00,17.6,9.2,29.90,SW,225,2.9,5.4,69,0.00,,,0.00,WUHU216HW,2013-02-11 03:59:00,
2013-02-10 21:00:00,17.6,9.2,29.90,WSW,248,2.2,5.4,69,0.00,,,0.00,WUHU216HW,2013-02-11 04:00:00,
2013-02-10 21:04:00,17.1,8.6,29.91,WSW,248,2.5,4.3,69,0.00,,,0.00,WUHU216HW,2013-02-11 04:04:00,
2013-02-10 21:05:00,17.1,8.6,29.91,WSW,248,2.9,4.3,69,0.00,,,0.00,WUHU216HW,2013-02-11 04:05:00,
2013-02-10 21:09:00,16.7,8.3,29.91,West,270,3.8,4.3,69,0.00,,,0.00,WUHU216HW,2013-02-11 04:09:00,
2013-02-10 21:10:00,16.6,8.1,29.91,WSW,248,2.9,4.3,69,0.00,,,0.00,WUHU216HW,2013-02-11 04:10:00,
2013-02-10 21:14:00,16.2,7.7,29.90,WSW,248,4.0,4.0,69,0.00,,,0.00,WUHU216HW,2013-02-11 04:14:00,
2013-02-10 21:15:00,16.2,7.7,29.90,WSW,248,3.8,4.0,69,0.00,,,0.00,WUHU216HW,2013-02-11 04:15:00,
2013-02-10 21:19:00,16.2,7.7,29.90,WSW,248,4.7,4.9,69,0.00,,,0.00,WUHU216HW,2013-02-11 04:19:00,
2013-02-10 21:20:00,16.2,7.7,29.90,WSW,248,4.7,4.9,69,0.00,,,0.00,WUHU216HW,2013-02-11 04:20:00,
2013-02-10 21:21:00,16.2,7.7,29.90,WSW,248,4.3,4.9,69,0.00,,,0.00,WUHU216HW,2013-02-11 04:21:00,
2013-02-10 21:24:00,16.4,7.9,29.90,SW,225,2.7,4.9,69,0.00,,,0.00,WUHU216HW,2013-02-11 04:24:00,
2013-02-10 21:25:00,16.4,7.9,29.90,WSW,248,2.5,4.9,69,0.00,,,0.00,WUHU216HW,2013-02-11 04:25:00,
2013-02-10 21:26:00,16.6,8.1,29.90,WSW,248,4.0,4.9,69,0.00,,,0.00,WUHU216HW,2013-02-11 04:26:00,
2013-02-10 21:30:00,16.7,8.3,29.90,SW,225,1.6,4.7,69,0.00,,,0.00,WUHU216HW,2013-02-11 04:30:00,
2013-02-10 21:31:00,16.6,8.1,29.90,SW,225,1.6,4.3,69,0.00,,,0.00,WUHU216HW,2013-02-11 04:31:00,
2013-02-10 21:35:00,16.6,8.1,29.90,SW,225,1.8,4.0,69,0.00,,,0.00,WUHU216HW,2013-02-11 04:35:00,
2013-02-10 21:36:00,16.6,8.1,29.90,SW,225,2.2,4.0,69,0.00,,,0.00,WUHU216HW,2013-02-11 04:36:00,
2013-02-10 21:40:00,16.4,7.9,29.90,WSW,248,2.2,2.7,69,0.00,,,0.00,WUHU216HW,2013-02-11 04:40:00,
2013-02-10 21:41:00,16.2,7.7,29.90,WSW,248,2.5,2.7,69,0.00,,,0.00,WUHU216HW,2013-02-11 04:41:00,
2013-02-10 21:46:00,15.5,7.1,29.90,WSW,248,2.5,3.1,69,0.00,,,0.00,WUHU216HW,2013-02-11 04:46:00,
2013-02-10 21:51:00,15.5,7.1,29.90,SSW,203,1.8,3.1,69,0.00,,,0.00,WUHU216HW,2013-02-11 04:51:00,
2013-02-10 21:56:00,15.5,7.1,29.90,South,180,2.7,3.1,69,0.00,,,0.00,WUHU216HW,2013-02-11 04:56:00,
2013-02-10 22:00:00,15.5,7.4,29.90,SW,225,3.8,3.8,70,0.00,,,0.00,WUHU216HW,2013-02-11 05:00:00,
2013-02-10 22:05:00,15.3,6.9,29.90,WSW,248,2.7,3.8,69,0.00,,,0.00,WUHU216HW,2013-02-11 05:05:00,
2013-02-10 22:10:00,15.3,6.9,29.90,SW,225,2.2,3.8,69,0.00,,,0.00,WUHU216HW,2013-02-11 05:10:00,
2013-02-10 22:15:00,15.1,6.8,29.90,SSE,158,3.4,3.6,69,0.00,,,0.00,WUHU216HW,2013-02-11 05:15:00,
2013-02-10 22:20:00,15.3,7.6,29.90,SSE,158,4.3,4.7,71,0.00,,,0.00,WUHU216HW,2013-02-11 05:20:00,
2013-02-10 22:21:00,15.3,7.6,29.90,SSE,158,4.7,4.7,71,0.00,,,0.00,WUHU216HW,2013-02-11 05:21:00,
2013-02-10 22:25:00,15.3,7.8,29.90,SSE,158,4.9,5.8,72,0.00,,,0.00,WUHU216HW,2013-02-11 05:25:00,
2013-02-10 22:26:00,15.3,7.8,29.90,SSE,158,5.4,5.8,72,0.00,,,0.00,WUHU216HW,2013-02-11 05:26:00,
2013-02-10 22:30:00,15.3,7.8,29.90,SSE,158,4.3,5.8,72,0.00,,,0.00,WUHU216HW,2013-02-11 05:30:00,
2013-02-10 22:31:00,15.3,7.8,29.90,SSE,158,3.6,5.8,72,0.00,,,0.00,WUHU216HW,2013-02-11 05:31:00,
2013-02-10 22:35:00,15.5,8.3,29.90,SSE,158,3.4,5.4,73,0.00,,,0.00,WUHU216HW,2013-02-11 05:35:00,
2013-02-10 22:36:00,15.5,8.3,29.90,SSE,158,3.4,5.4,73,0.00,,,0.00,WUHU216HW,2013-02-11 05:36:00,
2013-02-10 22:40:00,15.3,8.2,29.89,SSE,158,2.9,4.5,73,0.00,,,0.00,WUHU216HW,2013-02-11 05:40:00,
2013-02-10 22:41:00,15.3,8.2,29.89,SSE,158,3.6,4.5,73,0.00,,,0.00,WUHU216HW,2013-02-11 05:41:00,
2013-02-10 22:45:00,14.9,7.8,29.89,South,180,1.6,4.5,73,0.00,,,0.00,WUHU216HW,2013-02-11 05:45:00,
2013-02-10 22:46:00,14.9,7.8,29.89,SSW,203,1.8,4.5,73,0.00,,,0.00,WUHU216HW,2013-02-11 05:46:00,
2013-02-10 22:50:00,14.8,7.4,29.89,SSW,203,1.8,3.6,72,0.00,,,0.00,WUHU216HW,2013-02-11 05:50:00,
2013-02-10 22:51:00,14.8,7.7,29.89,SSW,203,1.1,3.6,73,0.00,,,0.00,WUHU216HW,2013-02-11 05:51:00,
2013-02-10 22:55:00,14.6,7.2,29.89,SSW,203,0.9,2.0,72,0.00,,,0.00,WUHU216HW,2013-02-11 05:55:00,
2013-02-10 22:56:00,14.6,7.2,29.89,SSW,203,1.1,1.8,72,0.00,,,0.00,WUHU216HW,2013-02-11 05:56:00,
2013-02-10 23:00:00,14.2,6.8,29.89,SSW,203,1.1,1.8,72,0.00,,,0.00,WUHU216HW,2013-02-11 06:00:00,
2013-02-10 23:01:00,14.2,6.8,29.89,SSW,203,1.1,1.1,72,0.00,,,0.00,WUHU216HW,2013-02-11 06:01:00,
2013-02-10 23:05:00,13.7,6.3,29.89,SW,225,3.1,3.6,72,0.00,,,0.00,WUHU216HW,2013-02-11 06:05:00,
2013-02-10 23:06:00,13.7,6.3,29.89,SSW,203,3.4,3.6,72,0.00,,,0.00,WUHU216HW,2013-02-11 06:06:00,
2013-02-10 23:11:00,13.7,6.7,29.89,SW,225,3.4,3.6,73,0.00,,,0.00,WUHU216HW,2013-02-11 06:11:00,
2013-02-10 23:16:00,13.7,6.7,29.89,SW,225,3.4,3.6,73,0.00,,,0.00,WUHU216HW,2013-02-11 06:16:00,
2013-02-10 23:21:00,13.5,6.5,29.89,SW,225,2.7,3.6,73,0.00,,,0.00,WUHU216HW,2013-02-11 06:21:00,
2013-02-10 23:22:00,13.5,6.5,29.89,SW,225,3.1,3.6,73,0.00,,,0.00,WUHU216HW,2013-02-11 06:22:00,
2013-02-10 23:26:00,13.3,6.6,29.90,SW,225,3.8,4.0,74,0.00,,,0.00,WUHU216HW,2013-02-11 06:26:00,
2013-02-10 23:27:00,13.3,6.6,29.90,SW,225,3.4,4.0,74,0.00,,,0.00,WUHU216HW,2013-02-11 06:27:00,
2013-02-10 23:31:00,13.3,6.6,29.89,SW,225,2.0,4.0,74,0.00,,,0.00,WUHU216HW,2013-02-11 06:31:00,
2013-02-10 23:32:00,13.3,6.6,29.89,SW,225,2.0,4.0,74,0.00,,,0.00,WUHU216HW,2013-02-11 06:32:00,
2013-02-10 23:37:00,13.0,6.2,29.89,WSW,248,2.7,3.4,74,0.00,,,0.00,WUHU216HW,2013-02-11 06:37:00,
2013-02-10 23:42:00,12.6,5.9,29.89,SW,225,2.0,3.1,74,0.00,,,0.00,WUHU216HW,2013-02-11 06:42:00,
2013-02-10 23:43:00,12.6,5.9,29.89,SW,225,2.5,3.1,74,0.00,,,0.00,WUHU216HW,2013-02-11 06:43:00,
2013-02-10 23:47:00,12.6,5.9,29.89,SW,225,2.0,2.7,74,0.00,,,0.00,WUHU216HW,2013-02-11 06:47:00,
2013-02-10 23:48:00,12.6,5.6,29.89,WSW,248,2.7,2.7,73,0.00,,,0.00,WUHU216HW,2013-02-11 06:48:00,
2013-02-10 23:52:00,12.6,5.6,29.89,SW,225,2.2,3.8,73,0.00,,,0.00,WUHU216HW,2013-02-11 06:52:00,
2013-02-10 23:53:00,12.6,5.6,29.89,SW,225,0.9,3.8,73,0.00,,,0.00,WUHU216HW,2013-02-11 06:53:00,
2013-02-10 23:57:00,12.8,6.0,29.88,SW,225,2.0,3.8,74,0.00,,,0.00,WUHU216HW,2013-02-11 06:57:00,
2013-02-10 23:58:00,12.6,5.9,29.88,SW,225,2.0,3.8,74,0.00,,,0.00,WUHU216HW,2013-02-11 06:58:00,